GFSFLT1_sfc_thetae_000.txt.gz
Theta_e
299 299 298 299 302 305 305 306 309 307 303 302 300 300 300 303 302 303 308 308 308 306 305 304 303 300 299 297 297 296 296 296
296 297 299 300 301 301 300 301 302 300 299 299 298 299 298 299 300 302 303 307 308 307 305 303 303 301 301 298 297 296 295 295
297 297 297 299 300 300 299 299 299 298 298 297 297 297 297 297 298 299 300 302 305 307 305 303 302 303 299 298 297 295 295 294
296 297 296 296 298 298 299 299 299 299 299 298 297 297 298 298 298 298 300 300 303 305 306 305 302 302 302 300 298 296 296 293
297 297 296 296 297 297 298 299 299 300 300 298 297 296 296 299 299 300 301 300 300 301 305 304 302 302 301 300 300 297 294 292
295 296 296 297 297 297 299 301 301 300 299 299 298 297 298 299 300 299 300 300 298 298 300 301 301 299 298 298 296 295 294 292
298 297 299 299 298 299 299 299 299 300 299 298 296 294 295 296 297 297 297 296 295 294 296 296 294 293 292 292 293 292 291 292
295 296 297 298 298 298 299 298 298 298 298 294 294 294 294 295 296 296 294 293 289 290 291 292 292 293 294 295 294 294 294 293
297 297 296 297 297 297 297 297 297 298 296 293 294 295 295 295 295 293 291 289 289 292 292 293 293 294 295 295 294 295 295 294
296 299 299 298 299 299 297 297 297 298 295 292 293 294 295 294 293 290 289 289 292 292 293 293 294 296 296 296 294 293 293 292
298 299 299 300 298 298 298 297 297 297 293 293 294 293 294 293 290 289 289 290 292 292 293 292 293 292 293 294 293 293 292 292
296 297 298 298 298 298 297 296 296 296 291 292 291 292 292 290 288 288 289 291 291 290 291 291 291 292 292 291 291 290 289 289
296 297 298 297 297 298 297 295 296 293 292 291 291 289 287 286 287 288 289 289 290 290 290 291 291 289 289 289 288 287 286 285
297 298 298 297 297 296 296 296 293 293 292 290 287 285 285 285 286 288 289 290 290 290 290 290 290 289 288 286 285 285 284 284
296 296 297 296 296 296 295 294 293 292 291 289 286 286 285 286 289 290 290 291 291 291 291 289 288 286 285 285 284 282 281 282
295 295 297 296 296 295 293 293 292 292 291 291 289 291 292 290 290 291 291 291 292 292 290 286 285 284 284 283 282 281 281 280
295 295 294 295 296 293 292 292 291 292 291 290 293 294 293 292 292 291 291 291 290 290 285 282 282 283 286 285 285 281 281 280
292 293 295 296 293 291 290 290 290 290 290 288 288 289 290 290 290 290 287 284 283 281 281 281 281 282 285 285 285 281 280 280
294 294 294 292 292 290 288 286 286 285 285 286 288 287 285 284 283 282 282 281 280 279 280 281 280 280 283 283 283 279 278 278

GFSFLT1_sfc_thetae_003.txt.gz
Theta_e
306 308 310 313 317 318 321 321 321 321 319 316 314 314 314 314 315 315 316 317 320 320 320 319 319 316 315 313 311 309 307 308
305 306 308 310 313 316 317 316 316 314 311 311 311 310 310 311 311 311 311 312 314 316 316 317 317 314 315 314 311 308 307 307
304 306 309 311 313 314 311 309 308 308 309 309 309 308 309 308 309 310 311 311 311 311 313 313 314 313 314 314 311 309 307 308
304 305 308 308 308 307 306 307 309 309 308 309 309 309 309 308 307 307 309 310 310 310 310 310 312 313 311 313 313 310 307 308
305 305 306 306 307 309 310 309 308 308 308 306 305 303 302 305 305 306 306 308 309 308 307 308 309 310 310 311 312 312 310 306
303 304 306 306 308 308 308 308 307 307 305 305 305 305 305 305 304 304 305 306 307 305 304 305 305 306 307 308 308 308 307 306
303 305 306 306 307 307 307 307 307 308 306 304 304 304 304 304 304 303 303 303 303 301 302 302 302 302 302 302 302 302 301 301
303 303 304 305 306 306 306 306 306 307 306 303 304 305 305 303 302 302 301 300 301 300 300 301 301 301 301 301 301 300 300 299
303 303 304 305 305 306 305 305 305 306 306 302 303 305 303 301 301 301 299 298 299 300 300 301 302 302 301 301 302 300 298 297
303 304 304 305 305 305 305 304 304 305 305 302 303 302 301 300 300 298 297 298 299 299 300 300 300 300 299 299 298 297 296 295
304 305 305 305 305 305 305 305 303 304 304 301 300 300 299 298 296 296 296 298 298 298 297 296 296 296 296 295 295 296 295 295
304 304 304 304 304 304 304 304 303 303 300 299 299 298 295 294 295 295 296 297 296 295 295 295 295 294 293 293 293 293 292 292
303 303 304 304 304 303 303 303 302 299 299 299 298 295 293 293 294 295 296 296 295 295 294 294 293 293 294 292 291 290 289 289
303 303 302 303 302 302 302 301 299 298 298 298 295 294 293 293 295 296 297 296 296 295 295 294 293 291 291 290 289 289 289 288
301 302 301 300 300 300 298 298 298 297 297 296 296 294 294 294 295 296 296 295 294 293 294 294 292 290 288 288 288 287 286 286
299 298 298 298 298 298 297 297 296 297 296 295 294 295 295 293 292 292 294 294 294 294 293 291 288 287 286 288 286 286 285 285
296 296 295 296 298 296 295 294 295 295 292 290 290 291 292 292 292 292 291 290 288 287 287 286 286 286 287 285 286 286 285 284
294 295 295 296 297 294 293 293 293 292 289 290 291 292 290 288 288 287 287 286 286 285 285 285 285 286 284 284 284 284 283 283
294 295 296 298 296 294 292 291 290 289 289 291 292 289 287 287 287 286 285 285 284 284 284 284 283 283 282 282 282 283 282 282

GFSFLT1_sfc_thetae_006.txt.gz
Theta_e
320 318 319 322 327 331 331 326 325 326 328 325 322 322 323 321 319 318 318 318 319 320 320 321 322 321 320 319 319 318 316 315
315 315 317 320 326 326 324 323 319 320 319 316 316 316 317 318 317 318 318 317 317 317 317 318 319 318 318 320 318 317 316 316
313 316 318 319 321 320 317 315 316 316 317 317 317 316 316 316 316 316 316 314 313 313 314 314 315 314 315 316 317 315 316 316
311 313 315 316 315 316 315 315 315 315 315 315 316 317 315 314 313 312 311 312 311 312 312 312 313 313 311 313 314 313 311 314
310 311 313 314 316 316 315 315 314 313 314 313 313 311 309 310 311 311 310 310 310 310 310 311 311 311 310 310 310 311 311 309
310 311 312 313 315 315 315 314 314 313 312 313 312 310 310 310 310 308 308 308 309 309 309 309 310 309 309 310 310 310 310 309
310 311 312 312 314 315 314 313 312 313 313 311 310 310 310 308 307 305 305 306 306 307 307 308 308 307 307 307 307 306 306 306
309 309 310 312 312 312 311 311 310 311 311 309 309 309 309 307 306 304 303 303 304 306 306 306 306 306 305 307 306 304 300 299
309 309 310 311 311 312 312 310 309 309 308 308 308 309 309 306 305 304 302 303 304 305 305 305 305 305 305 305 302 300 300 300
308 309 310 311 311 309 311 310 309 309 309 310 309 309 306 304 303 303 302 303 303 303 304 303 301 301 301 300 298 296 297 296
309 309 309 309 311 312 312 312 310 310 309 308 307 305 304 302 302 301 302 302 303 301 300 299 299 299 299 298 297 295 295 295
308 309 310 310 311 311 310 310 309 308 307 306 304 303 301 301 301 300 301 301 300 299 298 298 298 296 295 295 294 295 294 293
308 309 309 309 309 309 308 307 306 304 303 302 302 301 301 300 300 300 299 299 299 299 298 296 296 296 295 293 293 294 293 292
307 308 308 307 306 304 302 302 303 302 301 301 300 300 300 299 298 298 298 297 296 296 296 295 295 294 294 294 292 292 292 292
306 306 306 303 301 301 302 302 302 301 301 300 299 299 298 298 296 297 296 296 295 295 294 293 293 292 291 291 290 290 290 289
303 303 301 301 301 302 302 301 300 301 300 298 296 296 296 296 295 294 294 293 292 291 291 291 290 290 289 289 289 289 289 289
300 297 297 298 299 301 300 298 299 300 298 295 295 295 295 293 293 292 291 291 290 290 289 289 289 288 286 285 286 287 287 287
295 296 298 299 300 301 298 298 298 298 296 294 294 295 292 291 291 290 289 289 290 289 289 288 288 288 283 283 283 285 285 285
296 297 298 299 302 300 299 298 297 296 295 294 294 292 290 290 289 289 289 289 288 288 288 287 287 286 283 282 281 284 285 285

GFSFLT1_sfc_thetae_009.txt.gz
Theta_e
323 326 325 325 325 327 330 331 324 324 327 326 322 322 322 322 321 320 320 320 320 320 319 322 322 319 320 321 323 321 322 320
323 321 321 324 327 327 328 325 323 322 321 319 317 317 318 319 319 319 319 318 316 316 315 316 317 315 317 319 319 319 318 320
316 319 320 323 325 324 322 320 318 319 319 318 319 318 318 318 318 318 317 316 315 313 313 312 313 312 316 317 317 315 316 318
314 316 318 320 319 319 318 318 317 317 318 317 317 317 317 315 315 314 315 314 312 312 312 312 313 313 311 314 314 313 310 313
313 315 316 318 318 318 318 317 316 316 317 315 315 312 311 313 313 313 312 312 310 310 310 310 311 311 311 311 309 311 311 307
313 314 315 316 317 317 318 316 315 315 315 314 313 313 313 314 313 311 311 310 310 308 309 310 309 309 309 310 309 308 307 306
313 314 315 315 317 317 317 315 314 314 314 314 314 312 309 309 308 307 307 307 306 307 307 308 308 308 307 306 307 306 304 304
311 312 313 314 314 314 315 314 314 315 314 312 311 310 310 309 307 306 304 303 304 306 306 307 306 306 307 306 304 301 300 297
311 311 313 313 313 315 315 314 313 313 313 312 313 311 310 308 306 304 302 303 304 305 305 306 305 304 304 303 301 301 299 300
310 311 312 312 313 314 314 314 313 313 313 312 311 309 307 305 304 303 302 303 303 304 304 303 303 301 300 300 298 297 298 298
310 311 312 313 313 314 314 314 312 312 311 309 307 306 305 304 303 302 302 302 302 302 301 300 300 298 298 297 297 298 297 296
310 310 310 312 313 313 312 311 309 308 308 306 305 304 303 302 302 302 301 300 300 299 299 298 298 297 297 297 296 296 295 295
308 309 309 309 309 309 309 308 306 306 305 304 303 303 302 301 301 299 300 299 300 299 298 297 297 296 296 295 294 294 293 292
307 309 308 307 307 307 306 306 305 304 303 302 301 301 300 300 299 298 298 297 297 296 296 295 294 294 293 292 292 292 292 291
305 305 305 305 305 303 303 303 304 303 302 300 300 299 298 297 297 296 295 295 294 293 292 292 292 291 291 291 291 290 290 290
303 303 303 302 301 301 302 303 303 302 301 300 298 298 298 296 295 295 294 293 292 292 291 291 291 290 289 289 289 288 287 288
301 301 300 299 300 300 301 302 301 301 300 298 298 297 296 295 294 293 292 291 291 291 290 290 290 289 285 284 284 285 285 285
300 299 299 300 300 301 301 301 301 300 299 298 297 296 295 293 292 291 290 290 291 290 289 289 288 289 284 284 283 284 284 284
299 299 299 299 300 300 301 301 300 299 298 296 296 295 294 292 291 290 290 290 290 289 289 288 288 287 285 283 282 283 283 284

GFSFLT1_sfc_thetae_012.txt.gz
Theta_e
321 322 325 326 327 327 330 331 325 325 327 325 322 320 321 321 321 318 319 319 317 316 314 316 317 313 312 313 313 312 312 312
320 322 323 326 328 325 324 323 323 322 321 319 317 316 318 318 318 318 317 316 315 313 312 311 311 310 310 310 309 307 308 309
317 320 322 322 322 322 320 319 318 318 317 317 317 317 316 316 318 316 316 315 313 311 311 310 309 308 307 308 308 306 305 306
314 316 318 319 319 318 317 316 316 316 317 316 315 315 314 313 312 312 313 313 312 310 309 309 308 307 305 305 306 304 303 304
313 315 316 316 317 318 317 317 316 316 316 314 312 311 310 312 314 312 311 311 310 308 307 307 307 307 305 305 305 304 303 300
312 313 314 316 317 317 317 317 315 316 315 314 312 313 311 310 310 309 308 308 307 306 306 305 305 304 305 305 303 303 302 299
312 314 315 315 318 318 317 315 314 315 315 314 311 309 309 308 307 305 303 303 303 304 305 304 305 304 304 303 302 299 298 298
312 312 312 314 315 316 316 315 313 314 313 312 312 310 309 306 304 302 301 300 301 301 303 303 302 302 303 302 301 300 299 297
311 313 312 313 314 315 315 314 312 312 313 312 311 309 306 305 303 301 300 300 300 302 302 302 301 300 299 299 298 297 296 297
311 313 313 313 313 313 313 313 312 311 310 309 308 306 305 303 302 301 300 301 300 299 300 299 299 298 298 297 295 295 296 295
310 310 311 312 312 313 313 310 309 308 308 306 305 304 304 302 301 300 299 299 299 298 298 298 298 297 297 296 295 295 294 294
308 309 310 310 311 311 309 307 306 306 305 305 304 303 302 302 300 299 298 298 298 298 297 296 296 295 295 294 294 294 293 292
307 308 308 307 307 308 307 306 305 305 304 303 301 302 300 299 298 297 297 296 297 296 295 294 294 293 293 292 292 292 291 291
306 306 306 305 305 306 304 304 303 303 302 301 300 299 298 297 296 296 296 295 295 293 292 291 290 290 289 289 288 288 287 287
305 305 304 303 302 301 302 302 304 303 301 300 299 298 297 296 296 295 294 294 292 291 291 291 290 289 289 288 288 286 286 285
302 302 302 301 300 301 301 301 303 303 300 299 298 298 297 296 295 294 293 292 291 291 290 289 289 289 287 285 285 284 283 283
300 301 300 299 300 300 300 300 301 302 299 298 299 298 296 295 295 294 292 291 290 289 288 288 287 288 285 285 283 281 282 282
299 299 299 299 298 297 297 298 301 300 299 299 298 296 295 295 294 292 290 289 289 288 288 287 286 286 286 285 284 281 281 280
298 299 298 298 297 297 297 296 296 296 297 297 297 295 295 294 292 291 289 288 288 287 287 286 285 285 287 286 284 280 280 280

GFSFLT1_sfc_thetae_015.txt.gz
Theta_e
316 318 319 319 320 325 325 324 322 318 316 314 313 312 313 313 311 311 312 311 310 308 307 307 307 307 306 306 304 305 304 305
316 316 317 318 317 317 316 316 312 312 311 309 309 308 310 310 310 312 310 309 310 307 306 306 306 305 303 304 303 304 303 304
313 313 313 313 311 312 311 310 311 310 309 309 310 310 309 310 310 310 310 309 307 308 304 304 304 304 302 301 301 301 301 302
310 311 309 308 308 308 309 309 309 310 309 309 308 307 307 307 308 308 309 307 305 304 303 302 302 303 301 300 301 300 298 299
310 309 308 308 308 308 308 309 309 310 309 307 305 305 305 307 305 305 304 303 303 303 302 302 301 301 300 300 303 299 298 296
307 307 308 309 308 307 307 308 309 309 308 307 306 304 304 305 304 301 301 301 301 302 302 301 300 301 300 299 298 297 297 296
306 308 309 308 308 307 308 308 308 309 310 308 305 303 303 301 300 298 298 299 299 299 300 299 300 299 298 298 298 297 298 297
304 305 306 307 307 307 307 308 308 308 307 306 304 303 301 299 297 296 296 296 296 297 297 297 297 297 296 296 296 297 297 295
304 305 304 305 308 306 306 307 307 306 305 304 303 302 301 299 297 297 296 296 295 296 296 296 296 296 295 295 296 294 294 293
304 305 305 306 306 306 305 305 305 304 303 302 301 301 299 297 297 296 295 295 296 295 295 295 295 295 295 294 292 292 293 292
303 304 303 304 304 304 303 303 302 302 302 301 301 300 299 297 296 294 294 294 294 294 294 294 293 293 294 293 291 291 291 291
302 303 303 302 303 303 302 301 301 300 299 299 297 297 297 296 295 294 293 293 293 294 293 292 291 291 291 290 290 291 291 289
301 301 301 300 300 301 300 299 299 299 299 298 297 296 295 293 293 293 292 292 293 292 291 289 289 288 287 286 286 286 285 284
300 300 299 299 298 298 297 298 298 298 298 297 296 295 295 292 292 292 292 292 290 289 288 288 288 288 287 286 285 285 284 284
298 298 298 297 297 296 297 297 297 298 297 296 296 296 296 294 292 291 292 291 288 287 288 288 288 287 286 285 284 283 282 283
297 296 295 295 295 296 296 295 296 298 298 296 296 296 295 293 295 294 293 291 288 288 287 287 287 286 285 283 282 281 280 280
296 297 296 296 295 293 293 293 295 297 296 296 296 295 295 295 294 294 292 288 287 287 286 286 284 286 285 285 283 279 280 280
295 295 296 294 292 293 291 291 292 291 291 295 295 295 294 293 295 294 289 285 285 286 284 284 284 283 286 286 284 281 279 278
295 295 292 292 291 290 290 290 290 290 291 293 293 293 292 293 293 291 286 286 285 283 283 283 282 284 286 287 285 280 278 279

GFSFLT1_sfc_thetae_018.txt.gz
Theta_e
315 316 319 322 322 322 322 322 322 318 313 311 311 310 311 309 309 309 308 308 308 305 305 306 305 304 303 302 301 301 301 301
311 312 312 312 313 313 314 314 313 313 309 307 308 307 307 307 308 308 308 307 306 305 304 303 303 302 301 301 300 299 300 300
309 309 310 311 311 312 309 308 308 308 308 309 309 307 307 308 309 307 306 304 303 303 301 300 301 300 299 298 298 298 299 299
307 308 307 305 305 306 307 307 308 308 308 307 307 307 306 305 304 302 302 303 303 301 300 300 299 299 298 298 298 297 296 297
307 306 305 305 304 305 306 307 307 307 307 305 305 304 303 303 301 299 299 300 300 300 300 299 298 299 298 298 299 296 296 294
305 307 306 306 305 305 305 306 307 307 306 305 305 301 301 301 299 298 298 299 299 299 299 298 297 297 296 296 295 294 295 293
305 306 307 306 305 305 304 306 306 307 306 304 302 301 300 298 296 296 298 298 297 297 297 296 295 295 294 294 294 294 293 293
303 305 304 304 304 304 305 305 305 306 304 302 301 299 297 297 298 298 297 296 295 294 294 294 294 294 294 294 294 295 294 294
302 302 302 303 304 303 304 303 302 302 303 301 300 299 300 300 299 297 296 294 293 293 294 295 295 294 294 293 292 292 293 291
302 302 302 302 302 302 303 302 301 301 300 299 299 300 300 299 297 295 294 293 295 293 293 293 293 292 293 292 290 290 289 289
300 301 301 301 301 300 300 300 300 300 299 298 298 298 298 295 294 293 293 292 293 292 292 291 291 290 290 289 288 289 288 287
300 300 300 299 299 298 298 297 298 298 297 297 296 295 296 295 293 293 292 292 293 293 292 289 288 287 287 285 285 286 284 284
299 299 298 297 296 296 295 296 296 297 298 297 295 295 293 293 293 293 293 293 294 293 291 289 288 287 286 285 284 284 283 282
297 297 296 296 296 295 295 295 295 295 296 295 295 294 293 292 292 292 293 292 291 291 287 288 287 287 285 284 283 283 281 281
295 295 295 294 295 294 294 293 293 296 296 294 294 294 294 292 290 293 294 292 292 291 289 288 287 286 285 283 283 281 280 281
295 295 294 293 293 292 291 291 293 294 293 292 293 293 293 293 293 292 293 293 292 288 287 286 285 284 284 282 282 281 280 280
295 295 294 294 292 289 290 290 290 291 289 293 294 294 293 293 292 292 291 292 288 287 286 285 283 285 286 285 284 280 280 279
293 293 293 290 289 289 288 289 289 289 291 292 292 292 292 291 292 292 291 289 286 285 284 284 282 283 286 287 286 282 280 278
293 291 289 288 288 287 288 288 288 289 290 290 290 290 290 290 290 290 289 286 286 284 283 282 281 282 285 284 284 279 278 278

GFSFLT1_sfc_thetae_021.txt.gz
Theta_e
315 319 320 319 320 321 323 323 321 317 312 310 309 308 308 307 306 305 305 305 305 305 303 302 302 301 300 299 298 299 298 298
310 311 313 313 314 317 319 318 314 309 309 307 306 305 307 308 308 307 305 305 304 301 300 300 300 298 297 298 297 297 298 299
309 309 310 312 314 312 307 307 307 307 307 308 311 312 311 309 305 304 304 302 302 301 299 298 298 298 298 297 297 296 296 297
307 308 307 305 304 304 305 306 306 308 310 309 307 307 306 302 300 298 300 301 300 299 299 298 298 298 296 296 295 295 293 295
306 304 302 303 303 303 304 305 305 306 305 304 304 303 302 301 298 297 297 298 298 300 298 299 297 296 295 295 296 293 293 291
303 303 304 303 303 302 303 304 305 305 304 304 304 301 300 298 297 296 298 299 298 300 299 296 294 294 293 293 293 292 292 291
303 305 305 303 302 302 302 304 304 304 303 302 301 299 298 296 297 298 299 299 298 296 296 294 294 293 293 292 292 291 291 291
303 304 304 304 302 302 302 303 303 303 301 300 299 298 297 297 296 296 295 295 293 292 293 293 293 293 293 292 291 291 290 289
302 302 301 301 301 300 300 300 300 301 300 299 299 298 297 297 296 295 294 293 292 292 293 293 293 293 292 292 291 290 290 288
299 300 300 300 299 299 299 299 299 299 299 298 298 298 297 296 295 293 293 292 293 292 292 293 294 293 292 292 289 287 287 287
298 298 300 300 300 299 298 298 298 299 298 297 297 296 297 296 294 293 292 292 292 292 293 292 291 290 289 287 286 286 287 284
297 298 299 298 297 297 295 295 295 296 296 295 295 294 294 294 293 292 291 291 294 294 294 292 289 287 286 285 285 285 284 282
298 298 298 297 295 294 294 293 293 294 294 294 294 293 293 292 292 291 291 291 291 290 290 290 288 287 287 284 284 284 282 281
295 295 295 294 294 295 292 291 292 294 293 291 291 292 292 291 291 291 291 290 290 290 291 288 287 287 285 284 283 282 281 281
293 293 293 293 294 292 290 290 291 292 290 291 291 292 292 291 290 289 290 290 291 291 289 288 287 286 285 283 282 281 281 281
294 293 294 293 291 289 289 289 289 290 290 291 291 292 292 291 291 291 290 292 293 290 288 286 285 285 284 282 282 281 280 280
294 293 292 291 288 287 288 288 288 288 290 291 292 292 292 291 291 290 290 291 289 287 286 284 284 284 286 286 286 281 281 280
292 292 291 288 287 287 286 287 288 287 290 290 291 290 289 289 290 289 288 288 288 283 283 283 282 281 286 285 284 281 279 278
291 289 288 287 286 286 286 286 286 287 289 289 289 289 288 288 288 287 285 285 283 281 281 281 280 282 283 283 282 278 277 277

GFSFLT1_sfc_thetae_024.txt.gz
Theta_e
314 316 319 320 321 322 322 321 320 317 313 312 310 308 305 306 306 309 304 306 305 305 303 300 299 298 298 298 297 298 297 298
311 313 315 317 319 321 321 321 319 310 309 308 306 304 306 310 305 304 305 303 301 299 298 298 298 297 297 298 297 296 297 297
308 310 312 315 316 316 314 313 312 308 309 308 308 308 308 305 302 300 300 299 299 299 297 297 298 297 296 296 295 294 295 295
307 309 308 306 304 304 305 306 306 307 308 306 304 304 303 299 297 296 297 299 299 298 298 297 297 297 295 294 293 292 291 293
304 302 302 301 301 302 302 304 304 305 304 303 302 301 300 298 296 296 296 298 298 299 297 298 296 295 294 294 295 292 292 290
301 301 301 300 301 300 301 304 304 303 303 303 301 298 297 296 295 296 298 299 299 298 297 294 293 293 292 292 291 291 291 290
303 303 303 301 302 303 302 304 303 303 301 301 300 297 296 295 295 298 298 296 296 294 295 293 293 292 291 291 291 290 290 289
301 302 303 303 302 300 301 301 300 301 300 299 299 298 297 296 296 295 294 294 293 291 293 292 292 292 292 292 291 290 289 289
301 302 301 300 299 298 299 299 300 300 299 298 298 297 296 296 296 295 294 293 292 291 292 293 293 293 292 292 291 290 289 288
299 298 298 298 298 298 298 298 298 299 298 297 296 296 296 295 295 293 292 292 293 291 292 294 294 293 291 290 289 287 287 286
297 298 298 298 297 297 296 296 296 297 297 295 295 294 294 293 293 292 292 291 291 294 293 292 291 290 289 287 287 286 286 285
296 297 297 296 295 295 294 294 293 294 295 294 293 292 292 292 291 291 291 292 292 292 291 290 289 289 288 286 285 285 284 283
295 295 296 295 294 293 293 291 293 292 293 291 290 291 292 291 290 290 290 290 290 290 289 290 291 289 286 286 284 284 283 281
294 294 294 294 294 293 291 292 292 292 290 289 290 291 291 290 290 290 290 289 288 289 292 291 288 286 285 284 283 283 281 281
292 292 292 292 292 292 290 290 290 290 288 289 290 289 289 289 289 289 289 289 289 291 292 290 286 285 285 283 282 281 281 281
292 292 292 293 292 289 289 289 288 288 288 289 289 290 290 290 289 289 289 289 290 289 287 286 285 284 284 282 282 282 281 280
292 293 293 292 289 287 287 287 287 287 286 289 290 290 289 289 288 288 288 288 289 289 286 283 282 283 286 286 284 281 280 279
292 293 292 288 286 286 285 286 286 286 286 289 289 289 288 287 287 287 287 288 289 283 281 281 280 282 285 283 283 280 278 277
293 292 288 286 285 285 285 285 285 285 287 288 288 287 287 287 286 286 285 283 283 281 280 280 280 281 282 282 281 278 276 277

GFSFLT1_sfc_thetae_027.txt.gz
Theta_e
316 319 323 325 326 325 326 327 322 316 315 314 313 313 312 311 312 312 311 309 310 309 308 308 309 307 306 306 304 304 304 303
317 319 323 325 325 325 326 322 318 315 314 312 312 311 311 311 309 310 309 308 308 308 307 307 307 305 304 304 303 302 301 303
315 319 323 324 324 325 324 323 317 314 315 316 318 316 314 309 307 307 307 307 307 306 307 306 305 304 303 303 302 300 300 302
316 318 321 322 321 322 323 321 316 316 316 316 314 311 308 306 306 305 306 306 306 306 306 306 305 304 302 302 301 300 297 299
315 315 311 310 309 312 314 316 314 314 313 313 312 312 311 308 307 306 306 305 305 305 305 304 304 303 301 301 301 300 298 295
309 307 308 307 309 310 311 311 311 311 311 312 310 308 307 306 306 305 306 306 305 304 304 303 303 303 302 300 300 299 298 296
306 307 308 308 310 311 311 310 309 310 310 310 309 307 306 306 306 306 306 306 306 305 302 302 302 301 300 299 299 298 297 296
307 307 307 308 308 309 310 309 308 308 309 309 309 308 307 306 305 305 304 304 303 303 301 301 301 301 300 300 299 298 297 295
307 307 308 308 307 307 308 307 306 307 307 307 306 305 305 305 304 304 303 303 302 302 301 301 301 301 300 300 299 298 298 295
307 307 306 306 305 306 306 306 305 306 306 305 305 304 304 303 303 302 301 301 300 301 300 299 300 300 299 298 297 295 295 294
305 304 304 304 304 304 304 304 303 304 305 304 302 302 301 300 301 300 301 301 301 300 301 300 298 297 296 295 293 294 292 293
303 303 303 302 301 301 301 300 300 301 302 300 299 299 299 300 300 300 300 300 299 299 298 297 296 293 294 295 293 292 291 291
302 302 301 300 299 299 297 298 300 299 297 297 297 298 299 298 297 297 298 297 297 296 296 295 296 296 295 294 291 291 289 289
300 300 300 299 299 298 297 298 298 296 296 296 297 297 297 296 296 296 296 296 296 296 295 296 294 294 291 290 289 288 287 287
299 298 298 297 298 297 295 295 296 296 294 295 295 296 296 296 296 295 295 295 296 296 295 293 292 290 289 288 287 287 288 287
297 297 297 297 297 296 293 294 294 294 294 293 295 296 296 295 295 294 295 295 295 293 290 289 289 289 288 288 288 287 286 284
296 297 297 297 296 293 292 293 293 293 293 292 295 295 294 294 294 294 294 293 293 293 289 289 287 287 286 285 285 285 283 282
296 296 296 297 294 292 292 292 292 291 291 292 293 293 293 293 292 292 291 292 292 290 288 287 287 286 283 283 282 283 281 281
296 296 295 293 292 292 291 291 290 290 291 292 292 292 291 291 291 290 290 292 291 290 287 286 286 283 282 281 281 282 281 280

GFSFLT1_sfc_thetae_030.txt.gz
Theta_e
323 324 326 329 331 332 332 332 327 325 318 319 319 320 318 317 317 316 315 315 315 315 314 315 314 312 310 308 307 307 306 305
324 325 329 330 331 331 332 330 325 325 322 316 316 315 314 314 315 315 315 314 314 315 315 313 311 309 308 308 306 305 304 305
322 325 328 329 329 330 331 329 330 329 326 323 321 320 320 318 315 314 314 313 313 313 312 311 309 308 308 307 305 302 302 303
322 324 325 328 328 329 329 330 329 326 324 322 321 320 316 314 313 313 313 313 312 312 311 310 309 307 305 305 304 302 299 301
323 325 326 327 329 330 330 326 323 322 322 320 318 318 316 317 317 315 313 312 311 310 309 309 308 307 306 304 303 302 301 298
321 321 321 320 322 325 327 324 320 319 319 318 318 316 315 314 313 311 313 312 310 309 309 309 308 307 306 305 303 303 301 298
316 316 315 316 318 320 321 318 317 317 317 317 316 314 312 312 311 308 307 308 308 309 309 309 308 307 305 304 303 302 300 299
312 312 313 314 315 317 317 316 314 316 315 314 312 310 308 306 306 306 306 306 306 306 308 308 307 306 305 303 302 301 300 297
312 313 313 314 315 316 316 315 313 313 312 310 309 308 310 309 308 307 305 303 304 306 306 305 305 305 304 303 301 300 300 298
313 313 314 314 314 314 314 312 310 309 308 308 308 310 308 306 303 303 303 303 301 302 303 302 302 302 302 302 300 299 298 296
313 313 313 314 313 312 311 309 307 306 307 308 308 305 304 303 303 301 300 301 300 300 300 299 300 301 301 300 298 298 296 296
313 312 312 312 310 309 307 305 305 306 306 305 303 302 302 302 301 300 300 300 299 298 298 299 298 299 299 298 298 297 295 293
312 311 310 308 306 306 304 304 304 304 303 302 300 301 301 300 299 299 300 299 299 298 298 298 298 297 298 297 295 293 292 292
310 309 307 306 305 304 303 303 303 302 300 299 299 299 299 298 298 299 299 298 297 298 298 297 295 296 296 294 293 292 292 292
308 307 307 305 304 304 302 301 302 300 298 298 298 299 299 299 299 298 298 297 297 297 297 295 294 294 293 292 292 291 292 291
306 306 305 304 303 303 302 299 300 299 297 297 297 299 299 299 298 297 297 297 297 297 295 295 294 293 292 292 292 291 290 289
305 305 304 302 302 302 298 299 298 297 296 297 297 298 298 297 297 296 296 295 296 295 294 293 292 291 285 284 285 289 288 286
304 304 303 302 302 298 299 297 297 296 296 295 296 297 296 295 295 294 294 294 295 294 293 293 292 291 283 282 282 287 286 285
305 304 302 302 300 298 297 296 295 295 294 294 295 295 294 294 294 293 294 294 294 293 293 292 291 289 282 281 281 286 286 285

GFSFLT1_sfc_thetae_033.txt.gz
Theta_e
323 324 324 325 331 334 333 332 331 329 327 325 324 322 322 320 318 318 317 318 319 319 318 318 316 314 312 311 310 308 306 304
326 326 326 329 332 332 332 332 331 328 327 324 323 321 320 319 318 319 319 318 317 318 317 316 314 312 310 310 307 305 303 304
324 326 329 330 331 331 330 330 330 329 329 326 325 322 321 320 320 319 318 317 316 316 314 312 312 310 309 308 307 304 303 303
324 325 328 329 328 329 329 330 329 330 328 325 323 323 321 317 316 316 316 316 315 313 312 311 310 308 305 307 306 303 300 301
325 326 325 326 327 330 332 331 330 327 325 322 321 318 314 317 318 317 316 314 313 311 310 310 309 308 307 306 305 304 302 298
323 325 327 329 330 330 330 328 324 323 323 322 321 318 319 318 317 315 315 314 313 311 310 310 309 308 307 307 305 304 302 299
324 325 325 324 327 328 327 322 320 321 321 320 319 318 315 314 312 310 308 308 308 309 308 309 308 307 306 306 305 303 302 300
318 317 316 318 321 323 323 320 318 319 319 318 317 315 311 308 308 307 306 306 305 305 306 306 305 305 304 304 303 302 302 300
315 315 316 316 318 319 318 318 317 318 317 314 312 309 308 307 308 307 304 303 304 305 303 303 303 303 303 303 303 302 302 300
314 315 316 317 317 318 318 317 316 315 312 310 309 308 307 305 305 305 304 303 301 301 302 301 301 300 301 301 301 301 300 300
315 315 316 317 318 318 318 317 313 311 309 309 308 307 306 304 304 302 302 302 301 301 300 299 300 300 300 300 299 300 299 299
315 316 317 317 317 316 315 312 309 308 308 308 306 304 304 303 302 302 300 301 300 299 298 299 299 298 299 299 298 298 297 295
316 316 316 316 315 313 311 309 307 308 307 304 303 303 302 302 301 300 300 300 300 298 298 298 298 298 298 297 296 295 294 293
315 316 315 314 313 311 309 307 307 306 305 303 302 302 301 301 300 300 300 299 298 298 298 297 297 296 295 295 294 293 293 292
315 314 314 313 311 310 308 306 307 306 302 301 300 300 301 300 300 300 299 299 297 297 297 297 296 295 294 293 293 292 292 292
313 313 313 312 310 309 307 306 305 302 302 300 300 300 300 300 299 299 299 298 297 297 297 296 295 294 293 292 292 292 290 289
311 312 312 310 309 307 305 303 302 302 300 299 299 299 298 298 298 298 297 296 296 296 296 295 294 293 285 285 285 289 289 288
311 311 311 310 308 307 303 302 302 300 298 298 298 297 297 297 296 296 295 295 296 295 295 294 294 293 285 283 283 287 287 287
310 311 310 309 308 305 303 302 299 297 297 297 296 296 295 296 295 295 295 295 295 294 294 294 293 291 284 283 282 286 288 287

GFSFLT1_sfc_thetae_036.txt.gz
Theta_e
318 320 323 326 329 330 331 331 329 327 326 326 324 323 322 321 319 318 316 316 318 317 316 314 313 311 309 308 305 304 301 300
322 324 324 325 331 330 330 328 327 325 325 323 322 320 319 318 318 318 318 317 316 315 314 313 311 309 307 306 303 301 300 300
323 324 324 327 330 330 329 328 327 327 327 326 324 321 319 318 318 318 317 316 315 314 311 310 309 306 305 304 302 300 299 299
322 323 326 329 329 329 328 328 327 328 327 325 322 321 319 316 315 314 315 315 314 311 310 308 307 305 302 303 302 300 296 297
322 323 324 327 329 329 329 328 328 329 326 321 319 317 314 315 314 315 313 313 312 311 309 307 306 305 304 303 302 300 298 295
322 324 326 327 327 327 328 329 328 326 323 321 320 318 317 316 315 313 313 313 312 311 309 307 306 305 304 303 302 301 300 296
323 325 326 326 328 328 328 326 322 322 321 321 320 317 315 313 312 310 309 307 306 307 306 305 304 303 302 301 301 300 298 297
321 322 323 324 325 326 324 321 318 320 320 319 318 316 312 308 307 305 305 304 303 303 303 301 301 301 301 300 299 299 298 296
321 321 319 320 322 323 321 318 317 317 318 316 314 311 308 306 307 305 303 301 301 302 300 300 299 299 298 298 298 298 298 296
317 316 316 317 318 319 319 317 316 316 315 312 309 308 306 304 305 304 302 301 300 300 299 298 298 298 298 297 296 296 296 295
314 313 315 316 317 318 319 318 315 315 311 310 307 307 306 305 303 302 300 299 299 298 298 297 297 297 297 296 295 295 294 294
313 314 315 316 317 317 317 316 314 310 308 308 307 305 304 303 302 301 299 299 298 298 297 296 296 296 296 294 294 294 293 292
314 314 315 315 316 315 315 314 311 308 308 307 305 304 303 302 302 301 299 298 298 297 296 296 296 296 294 293 292 293 291 290
314 315 314 315 315 314 313 312 308 308 306 303 303 303 302 300 301 299 299 298 297 296 296 296 295 294 293 293 292 291 291 290
314 314 314 314 314 313 312 309 308 306 304 303 301 300 301 300 300 298 298 298 296 296 296 296 296 294 293 293 292 291 289 289
312 314 314 314 313 312 311 307 306 305 304 300 300 301 300 300 299 298 298 297 296 296 296 295 294 293 292 290 289 287 286 286
312 313 314 314 313 310 309 306 305 302 302 300 300 300 298 298 297 297 297 296 296 295 294 294 292 292 287 286 286 284 285 285
310 311 312 313 312 309 307 304 302 302 300 299 298 298 297 297 296 296 295 294 294 293 293 293 291 290 287 285 283 283 283 283
308 310 312 312 312 308 305 302 302 299 297 297 298 297 296 295 295 294 294 294 293 292 291 292 292 291 287 285 284 281 282 283

GFSFLT1_sfc_thetae_039.txt.gz
Theta_e
316 318 320 321 322 324 327 324 322 320 321 320 319 317 317 315 314 313 312 312 313 311 310 309 308 306 304 303 301 300 298 296
315 315 321 321 323 325 325 322 321 321 319 318 317 314 313 312 313 312 312 313 312 311 310 308 305 304 301 301 299 297 296 296
315 314 318 322 323 325 324 323 323 321 322 320 318 314 312 312 312 312 312 311 311 309 306 304 303 301 300 299 298 297 296 295
316 317 319 323 323 324 324 323 322 322 322 320 316 313 312 309 309 309 309 310 309 307 306 304 302 301 299 298 297 296 293 294
318 317 318 323 323 325 326 325 324 323 324 318 313 311 308 308 308 308 308 308 307 307 305 304 302 301 299 299 300 297 295 292
317 317 319 324 324 325 326 326 326 324 323 318 313 311 310 309 309 307 307 307 307 307 304 302 300 300 299 298 297 298 297 294
319 319 323 323 325 326 325 322 322 323 318 315 313 311 308 308 308 308 308 305 302 301 301 298 298 297 296 296 295 296 295 294
318 319 320 321 319 320 321 322 318 316 315 313 311 308 307 305 303 300 299 300 299 297 298 297 296 296 296 295 294 294 294 294
317 319 319 320 320 320 321 319 315 313 312 311 307 303 301 301 300 298 298 299 299 298 297 296 295 295 294 294 293 293 293 292
314 313 315 317 318 315 313 313 312 312 311 305 302 302 301 300 299 299 300 298 299 297 296 296 295 294 295 293 292 292 292 292
311 310 311 312 313 313 312 310 311 310 306 303 302 301 300 301 301 299 299 298 298 296 296 294 293 294 293 293 291 292 292 291
308 307 310 311 311 311 311 310 309 305 304 302 301 300 302 300 300 299 298 298 297 295 295 293 293 293 293 291 291 292 290 289
308 307 309 310 310 311 310 309 306 305 304 302 299 300 301 300 300 299 298 297 297 296 294 293 294 293 291 291 291 290 288 288
308 307 309 310 310 311 310 307 304 305 304 301 300 301 300 299 298 299 297 296 294 294 294 293 293 293 291 291 290 289 289 288
308 308 309 311 312 311 310 307 305 303 300 298 299 299 299 299 298 297 295 295 294 294 293 294 294 293 292 292 291 288 286 285
307 307 307 309 309 309 309 307 304 302 301 299 299 299 299 298 298 297 296 295 294 294 293 293 293 292 291 290 289 286 285 285
307 309 309 309 309 308 307 304 302 300 299 298 300 299 299 296 295 295 295 294 293 293 293 293 292 291 288 289 286 283 284 283
304 306 308 308 308 307 302 301 301 301 299 299 299 297 295 295 295 293 293 292 292 292 292 292 291 288 288 288 286 283 282 282
302 302 306 305 304 301 300 300 300 297 296 296 297 295 294 293 293 292 292 292 291 291 290 290 290 289 288 287 285 281 281 281

GFSFLT1_sfc_thetae_042.txt.gz
Theta_e
323 321 322 321 320 321 325 323 320 319 319 317 316 316 315 314 312 312 312 311 311 311 308 307 306 303 302 301 298 298 296 295
320 318 319 319 319 323 323 320 318 319 317 315 314 313 312 312 311 311 310 311 312 309 307 304 303 300 300 300 297 296 295 294
315 316 317 318 320 323 322 320 319 319 319 316 315 313 312 311 311 310 311 310 308 306 304 302 301 300 299 298 297 295 294 294
311 315 316 318 320 322 321 321 319 320 320 318 314 312 310 308 307 307 308 309 308 306 304 302 300 300 298 297 296 295 293 293
312 315 316 318 321 323 323 322 320 320 320 317 313 311 309 308 307 306 307 308 306 306 304 302 300 300 298 298 298 296 294 292
313 317 318 320 322 322 322 322 322 321 321 318 314 310 309 307 306 306 305 305 305 304 302 300 299 298 297 296 296 294 294 292
314 316 321 320 322 322 322 323 324 324 321 315 314 311 308 307 305 305 304 303 300 300 299 298 297 296 295 294 293 292 292 292
313 317 320 321 321 321 322 324 322 322 318 314 311 310 308 308 307 304 300 298 298 297 297 298 297 296 294 293 292 291 291 291
315 318 319 321 321 322 322 322 319 314 312 311 310 308 305 302 302 301 300 299 298 298 297 297 295 295 294 292 293 292 291 291
316 317 318 318 318 318 319 319 313 311 310 307 304 304 302 301 300 302 300 299 298 297 297 296 295 295 294 293 292 290 290 290
313 314 316 317 317 314 313 315 312 311 307 305 304 303 303 303 303 301 299 298 298 297 295 295 294 294 293 291 290 291 289 288
312 312 314 315 314 311 309 312 312 308 304 302 302 303 302 303 302 300 299 297 297 297 296 293 293 292 292 290 290 291 289 288
310 312 312 311 312 311 309 309 309 305 302 301 300 301 301 301 300 298 299 297 298 296 293 293 293 293 291 290 289 289 288 287
307 308 310 312 311 311 309 307 306 303 302 301 301 300 300 299 299 298 296 295 294 293 293 293 293 292 291 290 289 289 288 288
307 306 308 310 311 311 308 306 304 304 302 301 300 300 299 298 297 295 295 294 292 292 293 293 293 292 291 291 290 289 288 286
305 304 304 306 308 310 308 306 303 302 301 300 301 300 297 297 296 295 295 293 293 292 292 293 293 292 292 291 290 287 285 284
306 305 306 307 307 308 307 304 302 301 299 298 299 300 297 296 294 295 295 294 293 292 292 293 292 291 290 290 288 285 285 283
303 306 306 307 308 307 303 300 300 299 299 299 297 295 294 294 294 293 292 291 291 291 291 291 291 291 289 290 288 284 283 282
299 300 300 299 298 299 299 299 296 296 296 296 293 292 292 293 293 292 292 292 291 290 290 290 289 290 289 289 287 282 281 281

GFSFLT1_sfc_thetae_045.txt.gz
Theta_e
323 323 323 321 322 320 323 323 320 319 319 317 316 316 315 313 311 311 311 310 310 308 307 305 304 302 300 299 297 296 295 294
322 323 322 322 318 320 322 319 318 319 317 315 313 312 311 311 311 311 311 310 310 307 305 304 302 300 299 298 296 295 294 293
320 320 320 318 317 320 319 320 318 319 318 315 315 313 312 311 310 310 309 310 309 307 303 302 300 299 298 297 296 294 294 293
319 316 316 316 316 319 320 319 319 319 317 315 312 310 309 308 307 306 308 308 307 305 303 301 299 298 296 295 295 294 292 292
318 315 314 315 317 320 321 320 319 318 318 315 312 309 308 309 307 306 306 307 306 304 302 301 299 298 297 297 297 294 293 292
313 314 315 316 318 319 320 320 319 319 319 317 313 310 309 307 306 305 305 304 304 303 301 300 299 298 295 295 295 293 294 292
311 314 315 315 318 319 319 319 319 319 318 318 314 311 307 306 304 303 302 300 299 299 299 297 296 295 294 293 293 292 291 291
310 313 314 316 318 319 319 319 319 321 320 319 314 312 309 308 305 304 300 297 295 296 296 295 296 296 295 293 293 292 291 291
311 314 316 317 318 319 320 320 320 322 321 318 313 310 309 308 307 305 301 299 297 296 297 297 297 296 295 294 294 292 292 290
312 315 318 318 319 319 320 320 321 319 317 311 308 308 305 303 303 303 301 299 298 298 297 296 296 295 296 294 291 291 289 289
312 316 317 319 320 320 319 319 315 313 307 306 306 306 304 303 303 301 299 299 298 297 296 296 296 296 294 292 289 289 288 288
313 315 316 317 316 315 317 316 311 308 304 303 303 303 303 303 301 300 299 298 296 297 297 296 295 293 292 290 289 290 290 288
312 313 314 314 314 314 314 313 311 308 304 302 303 302 302 300 299 298 297 297 299 298 297 294 293 292 291 290 290 290 288 286
307 309 311 313 314 312 311 310 310 304 303 303 303 302 301 300 299 298 298 296 294 293 292 293 293 292 291 290 289 288 287 287
305 306 309 311 311 310 307 307 305 303 302 301 301 299 300 300 298 296 295 295 293 293 293 293 293 293 291 290 289 287 287 287
305 304 304 306 307 307 306 304 303 302 301 302 299 298 298 297 296 293 294 294 293 293 293 293 293 292 292 290 289 287 286 284
303 305 304 305 306 306 304 301 302 302 301 298 299 299 297 295 295 294 293 293 293 293 293 292 291 291 290 291 289 286 285 284
299 302 304 304 304 303 299 298 299 298 298 298 296 295 293 293 294 293 293 293 294 293 291 291 290 289 290 291 290 285 283 282
293 294 295 296 297 297 297 296 296 295 294 293 293 292 292 293 293 293 293 293 291 288 288 287 287 288 289 290 289 283 281 281

GFSFLT1_sfc_thetae_048.txt.gz
Theta_e
319 321 319 317 319 321 320 320 319 318 317 316 316 316 315 314 313 312 311 310 309 307 307 306 303 301 299 298 297 296 295 294
321 321 320 317 318 318 319 319 317 317 315 314 313 312 315 312 311 311 310 309 309 307 305 303 302 300 299 297 296 295 294 293
320 320 319 318 318 318 320 319 317 318 319 314 314 312 312 313 311 309 309 309 308 306 304 301 300 299 298 296 295 294 293 292
317 318 319 318 317 317 319 319 318 319 318 315 310 311 311 310 308 307 308 309 308 305 303 300 299 298 296 295 295 294 292 293
318 318 317 317 317 318 320 319 318 318 316 316 311 310 309 310 308 306 309 307 306 304 302 299 298 297 296 296 296 294 294 292
316 318 318 318 317 316 318 318 318 318 317 316 312 310 312 308 306 308 307 304 303 302 300 298 297 296 295 295 294 294 296 292
315 318 315 314 314 315 316 317 317 318 317 315 313 312 310 308 307 305 302 300 300 299 298 297 295 295 293 294 294 293 293 292
311 311 312 312 313 316 317 317 317 318 317 317 317 315 311 310 308 304 299 297 295 295 296 295 295 296 296 295 293 293 293 292
308 310 312 313 314 317 318 318 318 319 318 318 318 315 313 310 309 306 302 297 297 297 296 298 298 297 295 295 294 293 292 291
308 309 312 312 315 317 318 319 319 319 319 318 314 312 311 308 308 303 300 298 297 298 299 298 295 296 296 295 293 293 290 288
306 310 312 314 316 317 318 319 319 320 319 315 311 310 309 307 305 303 301 299 297 298 298 295 296 297 296 294 292 291 288 288
308 311 314 315 316 317 317 318 318 312 310 308 306 306 306 307 306 304 302 299 299 297 296 296 296 295 294 292 289 290 289 288
309 310 312 314 316 316 316 316 316 313 306 304 305 305 306 305 303 300 300 299 297 297 298 296 294 293 292 290 291 290 289 288
308 309 310 312 313 313 313 313 311 306 306 304 304 304 303 300 299 299 298 297 297 296 295 294 293 292 292 292 291 290 288 287
306 306 308 310 311 310 309 307 306 305 304 304 302 301 301 299 299 298 297 296 294 294 294 293 293 294 293 291 290 288 287 287
305 305 305 306 307 306 305 303 303 303 301 300 299 300 298 296 295 295 295 294 293 293 294 295 294 293 292 290 289 287 286 285
300 302 303 304 305 304 303 300 300 301 299 297 297 297 296 294 293 293 293 293 294 295 294 294 293 292 291 291 289 286 286 284
295 295 297 299 300 299 297 297 298 297 296 296 294 294 293 293 294 294 294 294 295 294 294 292 289 289 290 291 290 286 285 284
290 291 292 293 294 294 294 294 293 292 292 293 293 294 293 294 294 294 294 294 293 292 289 288 286 287 289 289 289 286 284 283

GFSFLT1_sfc_thetae_051.txt.gz
Theta_e
320 322 322 322 322 324 326 328 329 327 326 326 326 326 328 328 326 324 322 321 319 318 317 313 311 311 310 309 308 307 306 305
320 321 322 321 322 324 325 327 328 325 324 323 322 322 324 324 321 322 320 318 317 317 316 313 313 311 310 309 307 306 305 305
321 321 322 322 322 323 324 326 327 326 325 324 324 324 323 325 322 319 319 317 316 315 315 313 312 310 308 308 307 305 305 304
321 322 322 323 322 323 323 325 326 327 326 324 321 322 322 319 319 319 317 317 314 314 315 312 311 310 307 307 307 306 303 303
322 323 323 324 324 324 324 325 325 326 325 322 321 321 320 321 319 319 317 316 312 311 312 311 309 308 307 307 306 305 303 301
321 322 324 326 326 324 325 325 325 325 324 324 323 321 323 318 317 316 316 313 311 310 311 309 308 308 308 306 305 303 302 300
321 324 325 324 325 324 325 324 324 325 324 324 321 320 319 317 317 316 314 313 312 311 308 308 308 306 304 300 299 300 299 297
318 320 322 323 321 322 323 323 323 323 323 321 321 321 319 315 316 314 309 309 309 308 307 305 303 300 299 298 301 298 296 299
316 318 321 322 321 322 323 322 323 323 323 322 321 322 320 319 316 314 311 310 308 306 305 300 299 300 302 299 299 298 298 299
314 317 319 320 320 321 322 323 322 322 322 323 322 323 320 320 317 315 312 307 304 303 302 301 301 300 299 298 297 298 298 298
310 313 316 318 320 322 323 324 323 323 323 323 323 322 321 320 316 312 307 306 302 302 302 302 299 299 299 297 297 297 297 299
311 313 316 318 320 321 322 323 323 324 324 324 322 319 318 316 312 309 306 303 301 301 301 299 297 298 297 296 295 296 297 297
313 315 317 319 319 320 321 322 322 323 322 319 318 315 312 310 309 306 304 302 302 301 298 297 298 297 296 294 296 297 296 296
314 315 316 318 319 320 321 321 322 322 316 314 312 310 310 308 305 303 304 302 299 298 298 297 297 297 296 297 297 297 297 296
313 314 315 317 318 319 320 319 315 311 309 309 307 307 306 304 302 301 301 301 300 300 300 297 297 296 297 297 298 297 296 295
308 311 312 314 315 315 313 311 310 309 306 305 304 304 302 300 300 297 298 297 299 296 297 296 297 296 295 296 297 296 296 295
303 305 307 310 310 309 307 306 305 306 304 301 299 298 297 295 295 296 297 295 298 297 296 297 295 295 293 292 292 295 295 294
299 300 301 302 303 303 302 301 302 300 299 298 296 295 294 295 296 296 298 297 297 296 295 295 296 297 291 290 290 293 294 294
295 296 297 298 299 298 298 298 297 297 296 295 296 296 295 297 297 296 295 295 295 295 296 297 295 293 289 289 289 293 293 293

GFSFLT1_sfc_thetae_054.txt.gz
Theta_e
323 324 324 325 325 324 323 326 328 331 331 331 328 326 328 330 332 331 331 333 333 330 327 325 318 317 313 314 314 315 314 313
324 325 325 324 325 325 326 327 329 331 329 327 326 323 326 329 331 332 329 330 330 330 327 323 319 315 315 315 314 313 311 312
321 324 324 324 324 326 326 327 330 331 330 328 326 324 326 329 331 328 328 327 327 326 325 321 320 317 313 314 315 312 312 312
322 322 324 325 323 325 327 329 331 332 332 330 327 327 327 327 327 327 324 324 324 323 324 321 321 316 311 314 315 313 310 310
324 324 323 324 325 326 327 328 329 332 333 329 326 322 321 325 327 326 324 323 322 323 322 320 317 315 315 315 314 314 311 307
323 326 327 327 327 327 328 328 328 330 332 332 328 324 324 328 328 326 323 322 324 320 318 317 316 317 316 315 313 312 306 301
323 326 329 330 332 331 331 329 328 330 331 332 331 328 327 328 326 325 324 323 322 318 314 314 316 316 315 314 311 303 302 301
323 323 326 328 330 332 332 330 328 330 331 331 331 331 329 328 327 325 323 321 316 314 314 316 315 315 310 303 305 307 302 299
323 324 326 328 329 331 332 330 330 330 331 331 331 330 329 328 327 325 324 318 312 316 313 314 308 305 303 307 305 300 301 298
319 323 326 328 330 330 332 331 330 331 329 331 329 328 327 327 326 325 322 316 312 308 309 305 306 307 306 300 300 298 299 301
317 320 324 327 329 331 332 331 330 331 331 330 328 327 327 326 325 322 317 311 306 305 303 303 306 302 300 303 301 298 298 299
317 318 320 323 326 327 328 329 329 330 330 330 329 329 329 325 322 320 314 309 305 304 304 304 300 299 300 298 297 298 296 301
318 320 321 322 323 325 326 327 328 329 330 330 329 325 321 319 315 313 309 304 304 306 304 300 299 300 298 298 296 297 300 301
319 320 321 323 324 325 326 327 327 328 327 325 319 314 312 311 308 305 304 303 303 303 300 299 299 297 297 297 298 300 301 301
319 320 322 323 324 325 326 325 322 319 318 314 311 310 308 307 306 304 305 303 302 300 300 300 298 298 298 298 299 300 301 301
317 320 322 323 323 322 322 320 316 313 310 308 306 307 306 305 306 307 304 302 301 302 300 299 297 297 298 298 297 298 299 299
313 315 318 318 317 316 315 315 314 311 307 304 303 303 302 302 303 303 300 300 300 298 296 296 297 297 293 293 295 299 298 298
309 310 312 312 312 312 311 310 310 308 304 301 302 301 299 301 300 300 299 299 298 297 297 297 297 297 294 293 291 296 296 297
306 307 308 309 309 308 308 307 306 303 301 300 300 300 301 302 301 299 299 298 298 298 298 300 300 299 291 290 289 295 295 296

GFSFLT1_sfc_thetae_060.txt.gz
Theta_e
320 319 319 317 317 317 318 318 318 318 317 317 320 322 323 324 324 327 329 329 327 326 325 325 325 321 317 315 315 315 315 313
321 321 320 319 318 318 318 318 320 319 318 318 319 320 322 323 323 326 329 329 330 328 326 326 324 321 316 316 315 312 312 311
319 319 320 317 317 318 319 320 320 321 321 322 323 321 322 323 323 325 329 331 329 328 327 326 324 320 317 315 314 311 312 312
318 318 319 318 316 318 320 321 320 322 324 323 322 322 321 320 322 323 328 328 327 327 328 325 323 322 317 316 314 312 309 311
319 319 319 320 320 321 321 321 322 322 323 322 320 319 317 319 321 324 327 328 326 324 323 322 321 320 319 317 315 312 311 308
320 320 320 322 323 322 321 321 322 324 324 325 322 321 320 321 322 323 326 325 324 323 323 321 321 321 320 316 313 312 312 310
321 322 323 322 323 324 324 324 324 325 325 325 327 325 323 321 321 322 324 324 323 323 323 321 321 319 315 313 313 311 310 306
320 321 321 323 322 323 325 325 324 326 327 328 328 327 328 323 323 324 323 323 322 322 322 321 317 315 314 313 311 306 306 303
319 321 322 322 324 324 324 324 324 326 327 327 329 328 327 327 326 326 325 324 323 323 322 317 314 312 309 306 305 306 304 301
320 320 324 324 324 326 326 326 325 326 326 327 327 327 327 328 327 328 326 325 322 320 317 313 309 307 306 307 305 300 298 298
317 321 322 326 327 328 329 328 328 328 330 329 328 328 328 328 329 327 324 322 319 318 314 309 306 306 306 302 299 299 298 298
317 319 323 324 328 329 330 331 331 331 331 330 328 329 330 326 325 323 322 317 315 313 309 305 305 303 302 300 299 297 296 297
318 319 320 324 325 327 330 332 331 331 331 330 328 326 325 322 320 319 316 312 310 308 305 304 303 300 300 298 297 296 296 296
318 319 319 321 324 327 329 331 331 328 327 326 322 318 314 311 309 307 306 306 305 305 304 301 300 300 299 298 297 297 296 296
317 319 321 322 323 325 326 327 322 323 321 318 313 311 308 306 306 305 305 304 302 301 301 300 300 299 298 298 297 297 297 298
314 317 320 322 324 324 322 319 317 316 313 310 308 307 308 306 304 304 303 302 301 300 299 299 298 298 297 297 298 298 297 297
314 317 320 322 324 320 317 314 312 311 309 308 308 308 307 306 304 302 301 301 301 300 298 297 297 297 294 294 295 296 297 297
314 317 321 323 321 317 313 311 311 308 307 307 308 309 306 305 305 303 302 300 300 298 296 297 297 297 293 293 292 295 293 291
315 320 320 319 319 315 313 312 310 309 308 307 306 305 304 303 302 301 301 301 299 299 298 298 298 298 292 290 289 289 290 290

GFSFLT1_sfc_thetae_063.txt.gz
Theta_e
313 313 312 312 312 314 314 315 314 314 313 313 312 315 316 318 318 320 323 323 325 322 321 320 320 316 315 312 311 311 312 309
315 313 312 311 311 313 314 313 313 314 312 311 311 313 316 317 318 320 324 325 324 323 322 322 320 317 314 312 311 310 310 310
314 313 311 312 311 313 314 313 313 312 313 313 313 315 317 320 319 319 325 326 327 325 324 323 322 318 313 312 311 308 310 311
313 313 313 312 312 312 314 314 314 313 313 314 316 318 317 317 318 318 323 326 326 326 325 324 322 319 316 313 312 310 308 310
314 314 311 312 312 314 315 316 317 316 317 315 315 316 314 315 316 317 322 325 325 324 323 323 322 321 319 316 314 312 310 308
313 313 312 313 313 315 316 316 316 317 318 319 318 316 316 316 316 316 319 323 323 322 321 318 318 317 315 316 314 313 312 310
315 315 316 313 314 315 316 317 316 317 318 319 318 316 316 316 316 316 320 323 324 321 321 320 319 319 317 313 313 312 310 305
316 315 315 316 314 315 316 316 316 317 318 318 319 320 320 318 316 317 320 320 320 319 320 317 317 314 311 312 312 310 307 304
316 317 316 317 318 318 317 316 316 318 319 320 321 323 324 321 320 320 321 321 321 319 320 319 316 311 309 310 307 306 305 302
316 318 318 318 318 319 319 318 318 320 321 322 323 323 323 323 321 321 320 321 321 318 319 316 312 310 308 307 305 303 301 299
317 318 318 320 320 320 320 321 320 321 322 322 322 324 324 323 321 320 322 320 320 317 314 310 307 307 307 304 301 299 298 299
310 317 319 320 321 321 320 320 321 321 322 323 323 323 323 321 323 323 319 316 316 314 310 307 306 305 303 301 299 298 298 298
309 311 316 320 320 321 322 322 322 323 324 324 324 323 322 320 320 319 317 313 312 309 306 305 304 302 300 299 298 297 297 296
310 311 311 315 320 322 323 324 328 326 325 323 321 318 315 312 309 310 309 308 306 305 304 302 301 300 299 298 297 297 297 297
311 311 312 314 319 319 322 325 324 321 318 316 312 310 307 306 307 305 305 304 303 302 301 301 300 299 298 298 297 296 296 297
312 312 313 317 316 314 314 313 313 313 311 309 306 306 306 305 303 303 302 301 301 300 300 299 299 298 298 297 297 296 297 297
311 315 317 318 314 311 310 309 308 309 308 306 305 304 303 303 302 301 300 300 300 299 298 297 296 297 293 294 296 296 296 296
309 314 319 317 313 311 307 307 307 307 307 307 306 305 303 302 301 300 300 299 298 295 293 294 294 295 293 294 292 293 292 288
314 316 317 314 311 309 308 307 307 307 307 307 306 305 303 302 301 298 296 295 294 293 293 294 294 296 291 291 289 287 286 285

GFSFLT1_sfc_thetae_066.txt.gz
Theta_e
311 311 312 314 315 316 316 315 315 314 314 314 313 315 316 317 317 319 319 319 322 320 319 318 316 315 312 312 310 310 310 308
311 311 311 311 313 314 314 314 313 312 311 312 311 310 313 316 315 317 320 320 323 320 319 319 317 315 314 311 310 309 308 308
311 310 309 309 311 312 312 312 312 312 312 312 311 309 311 314 315 316 319 321 322 322 321 320 318 315 313 311 310 308 308 309
310 309 309 308 309 311 312 312 312 312 312 311 310 311 313 313 315 316 317 321 323 321 320 321 321 319 314 313 312 310 307 310
311 310 308 308 309 312 313 312 312 313 313 311 309 310 310 313 314 315 315 321 322 323 322 321 320 320 316 313 313 311 310 308
311 311 310 310 311 311 313 313 312 313 312 311 310 311 313 316 316 315 315 319 322 323 323 322 322 321 318 316 312 311 311 308
314 313 313 311 312 312 313 312 312 313 312 312 311 312 314 315 314 314 315 318 321 322 322 321 318 318 315 314 313 311 309 309
312 312 310 311 310 311 312 312 312 313 313 314 314 315 316 314 314 314 314 316 319 321 319 318 318 318 316 312 310 310 309 308
312 312 311 311 310 311 312 312 312 314 314 314 316 317 317 317 316 317 316 317 320 322 320 319 318 315 312 310 310 310 307 305
314 313 312 312 311 311 312 313 313 314 314 315 316 317 317 318 319 316 317 319 318 318 319 318 316 314 309 308 307 305 305 303
315 315 314 315 314 314 314 315 314 314 314 315 316 317 318 320 317 318 319 320 320 318 317 317 313 310 308 307 305 303 301 300
314 316 317 317 317 317 315 315 316 316 317 317 317 319 321 320 320 320 319 319 321 319 315 311 309 308 306 304 302 300 299 299
314 316 317 317 317 318 318 318 317 318 320 320 319 320 321 322 322 320 319 318 314 314 312 309 307 305 303 301 299 299 298 298
306 309 315 317 318 318 319 320 320 323 324 322 321 321 320 320 319 318 317 313 310 308 308 305 303 302 301 300 299 298 298 298
307 307 310 314 317 318 318 320 321 322 319 321 320 322 322 320 314 311 309 309 306 305 305 303 301 300 299 299 298 298 297 297
308 308 314 312 313 315 319 321 321 318 316 317 311 310 311 310 308 307 306 305 304 303 301 300 299 299 299 298 297 296 296 297
309 311 315 313 311 313 314 317 315 314 310 308 307 307 306 306 305 303 302 301 301 300 299 298 298 298 293 294 295 297 297 296
308 313 315 313 311 310 310 311 311 310 308 307 306 305 303 303 302 302 300 299 299 297 297 297 296 295 293 294 293 294 291 287
308 314 316 312 309 308 307 309 309 308 306 306 305 303 303 302 301 299 298 297 296 296 294 294 294 295 292 290 288 285 283 283

GFSFLT1_sfc_thetae_069.txt.gz
Theta_e
310 310 314 315 315 316 316 317 317 316 316 316 314 315 315 317 320 319 320 318 319 317 316 316 315 314 312 311 309 308 306 305
309 309 311 313 315 314 314 315 315 315 315 315 313 311 312 315 316 319 319 320 321 318 318 317 315 314 312 311 309 308 307 307
308 308 309 311 314 314 314 313 313 314 314 314 314 311 312 314 315 316 318 319 319 319 317 317 315 313 313 311 309 307 307 307
308 308 308 309 312 313 311 312 311 311 310 312 311 311 312 312 313 314 314 317 319 319 319 319 317 315 313 311 311 310 308 309
309 308 307 307 308 310 311 311 310 310 310 308 308 309 307 308 308 310 311 316 319 320 319 320 319 318 316 314 314 310 309 307
309 308 308 308 308 309 310 311 311 311 310 309 307 306 308 308 309 310 311 313 317 319 320 318 318 319 318 315 311 311 311 308
311 311 309 308 307 308 310 311 311 312 311 310 308 308 308 309 310 312 313 313 315 318 320 320 319 318 316 316 314 311 310 307
311 310 308 308 307 307 309 310 310 311 311 310 309 309 309 310 311 312 312 313 313 317 320 320 318 318 316 313 311 311 308 308
312 312 311 309 309 309 309 310 310 311 311 311 311 310 310 312 313 314 313 314 315 317 319 320 318 316 316 313 313 310 309 309
312 313 312 311 310 310 310 310 311 311 311 311 311 311 312 313 315 316 316 315 315 316 317 317 317 317 317 315 312 308 307 306
312 313 313 312 312 311 311 311 311 311 312 312 312 312 314 315 316 314 315 316 319 318 317 317 316 316 312 311 308 305 305 302
313 313 313 313 313 311 311 311 311 311 312 312 312 312 315 316 317 316 316 319 319 319 319 317 316 312 311 308 305 303 302 300
311 314 315 313 312 312 311 312 313 314 314 314 314 314 315 316 317 318 319 320 320 319 318 315 311 309 307 306 302 302 300 299
310 311 314 315 314 314 313 313 314 316 316 315 315 315 316 317 319 320 320 319 317 315 314 311 308 307 304 302 302 300 300 299
305 308 313 315 316 315 315 315 315 316 317 316 316 316 317 319 320 320 320 315 312 309 310 309 306 303 302 301 301 299 298 298
304 305 307 311 315 316 316 316 317 317 316 317 317 318 319 320 318 315 310 309 308 307 305 303 301 300 300 299 299 298 297 296
306 307 312 312 313 313 314 316 317 318 318 317 318 314 314 314 311 308 307 306 304 302 302 300 299 299 293 294 296 296 297 297
304 308 313 313 312 313 315 316 316 317 316 312 311 311 309 307 306 305 303 302 301 300 300 298 297 296 293 293 294 296 293 289
303 309 313 311 308 313 312 313 313 311 309 309 307 307 306 304 304 302 300 300 298 297 297 297 296 295 292 291 289 287 285 284

GFSFLT1_sfc_thetae_072.txt.gz
Theta_e
308 311 312 314 316 317 318 318 318 318 317 315 316 317 320 320 318 316 316 316 315 314 313 314 314 312 311 310 308 308 306 304
308 310 314 313 313 315 316 316 316 316 315 313 314 314 317 318 319 318 317 317 316 315 315 316 315 313 312 310 309 308 308 306
307 310 310 313 312 314 314 315 315 316 316 316 316 313 313 315 317 319 319 319 319 318 317 317 316 314 311 311 310 307 308 306
306 307 308 311 312 313 313 314 315 316 317 315 312 312 313 312 314 314 316 318 319 320 318 317 315 313 312 311 310 309 307 308
307 307 307 308 311 312 313 313 313 312 310 312 311 311 310 312 313 312 314 317 317 318 317 317 316 315 313 312 312 311 311 307
307 307 308 308 308 312 310 310 310 309 309 311 309 309 311 308 309 310 310 312 315 315 317 317 317 317 315 315 313 311 312 309
309 309 308 308 309 308 309 309 309 310 309 308 308 307 306 306 306 307 308 310 311 313 315 316 317 317 316 316 316 313 312 312
308 307 306 306 306 308 310 309 309 310 309 309 308 308 307 307 307 307 307 308 309 311 313 315 316 317 317 316 315 313 310 309
309 309 307 307 306 307 309 309 309 310 310 309 309 308 308 308 308 309 309 310 309 312 313 315 314 315 313 313 311 312 312 312
310 310 309 308 307 307 308 309 310 310 310 311 309 309 308 308 309 310 311 311 312 311 312 314 315 316 315 314 314 312 310 309
309 311 311 310 309 309 309 310 310 310 310 311 310 310 309 309 310 311 313 314 312 313 313 313 314 314 315 316 317 314 311 307
310 311 312 312 311 310 309 310 311 310 310 310 310 310 311 312 312 313 314 314 314 316 316 316 317 317 315 312 312 308 308 304
309 310 311 312 311 310 310 310 311 312 311 311 311 311 312 312 313 313 315 315 316 317 318 317 317 315 310 310 306 306 306 303
307 310 310 310 311 310 310 310 311 312 312 311 312 311 311 311 311 313 315 316 317 318 318 316 315 311 309 308 307 305 304 305
304 306 310 312 311 311 310 310 311 312 312 311 311 311 312 311 311 313 315 317 317 316 314 313 310 307 306 305 304 303 301 301
301 305 308 311 312 311 312 311 311 312 311 311 311 311 312 310 312 315 316 317 318 316 312 310 309 306 305 303 302 300 299 298
300 303 305 309 311 312 312 312 312 312 311 311 312 313 313 313 314 316 318 316 314 310 307 305 302 301 295 296 298 299 298 297
301 304 306 307 309 312 312 313 314 312 312 312 313 313 313 315 315 312 310 309 306 304 302 301 300 299 294 294 294 298 296 290
301 304 306 309 309 309 310 311 313 313 313 313 315 314 313 308 306 306 306 304 303 302 300 300 299 295 292 292 291 290 287 286

GFSFLT1_sfc_thetae_075.txt.gz
Theta_e
316 316 317 315 318 319 320 319 319 319 321 321 320 320 321 320 318 316 316 316 316 317 316 315 317 316 315 314 313 314 311 309
316 315 316 315 317 318 318 318 318 318 318 318 318 318 319 319 318 317 317 315 317 315 315 316 319 318 317 317 316 315 313 312
313 313 315 314 314 316 317 317 317 318 318 321 320 318 320 320 319 317 317 316 316 316 319 320 319 320 318 317 317 315 316 313
309 311 310 314 312 313 315 316 317 318 318 316 315 316 317 317 317 317 317 317 317 318 320 321 322 322 320 318 317 317 314 314
312 309 309 311 314 315 318 317 317 318 318 316 315 313 312 315 317 317 318 318 319 321 321 321 323 322 322 321 319 319 318 315
312 311 310 311 314 315 316 317 317 317 319 319 315 315 316 318 316 316 318 318 318 320 321 323 323 323 323 322 319 318 320 318
314 314 313 311 313 315 314 316 317 316 317 318 318 315 316 314 314 314 315 317 318 320 321 323 324 325 324 324 323 321 320 315
313 312 311 310 310 312 311 314 314 315 315 317 317 316 316 315 316 317 316 316 316 319 320 322 323 324 324 324 324 321 320 320
313 313 313 311 310 311 310 311 314 315 315 315 317 317 316 316 316 315 316 317 318 319 320 321 322 323 324 324 324 324 323 322
313 314 314 313 312 312 312 313 314 315 316 315 315 316 316 316 317 318 319 318 318 318 320 320 322 322 323 324 323 323 323 320
313 314 314 314 314 314 314 315 315 315 316 316 315 315 316 317 318 317 317 319 319 319 319 320 320 322 323 323 322 322 319 315
314 315 315 315 315 314 313 314 315 315 316 316 316 316 316 316 315 315 317 319 319 318 318 319 320 321 321 320 320 320 317 316
313 315 316 315 314 314 313 314 315 317 316 316 316 316 316 315 315 316 318 318 319 319 320 319 319 317 317 317 316 315 313 310
313 315 315 316 315 314 314 314 315 316 316 315 316 316 316 315 316 317 317 318 318 319 320 319 319 321 319 318 314 311 310 310
308 313 315 316 316 315 315 315 316 316 316 315 315 315 316 316 317 317 318 318 318 319 319 318 320 320 317 314 312 310 309 308
305 309 313 316 316 316 315 316 316 317 315 315 314 315 316 316 317 317 317 318 318 319 319 316 316 315 312 310 311 309 306 302
307 307 310 312 315 315 315 315 315 316 316 315 316 316 316 315 315 316 316 317 318 319 320 317 312 311 300 299 305 304 301 299
306 307 308 311 314 316 315 316 316 315 315 315 315 316 315 315 315 316 317 318 319 317 317 314 310 308 295 296 297 301 299 295
307 308 309 311 313 317 319 317 315 315 315 315 315 316 316 316 316 317 318 318 316 311 307 307 304 301 293 294 293 296 291 290

GFSFLT1_sfc_thetae_078.txt.gz
Theta_e
324 325 325 323 322 324 325 322 321 321 322 323 322 321 320 320 319 317 317 317 322 322 319 320 319 317 316 316 316 316 316 315
324 325 324 321 321 322 322 319 320 321 321 321 319 318 318 318 319 319 319 318 321 321 321 321 321 318 319 318 317 317 316 316
321 321 322 321 319 320 320 319 319 321 323 324 322 320 320 319 318 318 317 318 318 319 321 322 322 321 318 319 320 319 320 317
320 319 320 321 318 319 318 320 319 320 322 323 321 321 320 317 317 316 318 318 319 318 320 321 320 322 320 321 320 319 317 318
321 319 320 320 320 319 319 320 319 320 321 321 321 319 315 318 316 317 317 318 318 320 321 323 323 323 323 323 322 322 322 318
320 320 321 321 322 316 319 321 320 320 320 322 321 318 319 321 318 317 317 318 320 319 320 321 322 325 325 326 325 323 323 322
321 322 322 321 322 321 320 319 319 322 319 320 320 318 316 317 316 316 316 316 316 319 319 323 323 325 325 327 328 326 325 324
320 320 320 320 320 320 319 320 318 320 321 320 321 320 317 317 318 318 315 316 316 317 318 320 323 325 327 327 327 328 326 325
319 321 321 321 320 320 317 320 321 321 320 321 322 321 320 322 324 323 320 318 318 318 319 320 323 325 326 326 328 327 328 327
319 321 322 322 321 320 319 319 321 322 322 323 323 324 323 323 323 325 323 322 322 321 325 324 326 326 325 326 325 325 326 327
318 320 321 322 322 322 320 320 320 322 322 323 323 323 323 324 325 324 325 325 324 325 325 326 325 324 324 324 324 325 324 327
318 320 322 323 324 322 321 320 320 321 322 323 322 323 324 324 324 324 324 325 324 323 323 323 322 322 323 324 324 324 323 323
319 320 321 322 322 322 321 321 320 321 322 323 323 323 322 324 325 325 326 325 325 323 323 321 322 322 323 323 323 322 319 319
318 321 321 321 321 322 322 322 322 322 322 322 322 322 322 321 321 323 323 322 323 322 323 323 323 323 323 323 322 320 319 319
314 319 321 322 322 322 322 322 323 323 322 321 321 322 323 322 322 321 322 321 320 320 323 322 323 322 321 322 322 322 322 320
312 314 319 322 322 323 322 323 322 323 322 321 322 321 322 322 321 321 322 322 320 321 321 322 323 322 321 319 319 319 318 316
311 313 314 318 321 323 323 322 322 323 321 322 322 322 321 321 321 322 322 322 321 322 321 322 323 320 306 301 312 318 315 311
311 312 312 314 318 322 322 323 324 322 322 322 322 322 321 321 321 320 320 320 321 320 322 321 321 322 300 298 298 318 312 307
312 314 314 315 317 320 323 324 322 322 321 321 322 321 321 321 321 320 320 320 320 321 321 321 321 320 297 297 295 307 301 297

GFSFLT1_sfc_thetae_081.txt.gz
Theta_e
326 328 328 328 327 327 326 327 325 325 323 324 321 320 320 319 318 316 317 317 319 319 318 320 320 319 320 321 322 322 320 318
327 328 328 327 326 325 324 324 322 322 321 320 318 316 317 316 315 315 316 318 319 318 319 320 320 317 319 322 321 320 318 320
325 327 327 326 325 324 323 323 322 322 322 321 319 318 317 316 315 313 315 317 317 321 322 322 320 318 321 321 320 319 318 320
324 325 326 326 324 323 322 322 322 323 323 322 319 317 317 315 315 312 315 318 321 323 324 322 321 324 322 325 324 323 319 319
323 324 325 325 325 324 321 321 321 322 323 321 317 314 312 315 314 315 316 320 321 322 323 323 324 324 324 324 324 324 322 318
322 324 325 325 326 324 322 321 320 322 322 321 321 317 316 317 317 315 315 316 318 319 321 322 321 322 326 325 324 323 323 323
322 325 325 325 326 324 323 322 321 321 323 322 322 319 317 316 314 314 315 315 317 319 321 319 320 321 324 326 326 324 324 324
320 323 323 324 324 323 322 323 320 322 321 321 322 323 320 317 315 314 314 314 314 316 317 320 320 321 325 327 326 326 326 324
319 322 324 324 324 323 322 322 322 321 321 321 323 324 323 322 319 316 316 315 314 315 316 316 318 320 322 327 326 326 329 327
318 322 324 324 324 324 323 322 323 323 322 321 323 325 324 323 323 323 319 319 317 318 318 318 319 322 322 326 325 324 326 323
319 321 324 325 325 325 324 322 323 324 324 323 323 324 325 325 326 325 324 325 325 323 323 321 320 320 323 324 324 325 325 325
318 321 323 325 326 325 324 322 322 324 325 325 325 325 325 326 327 328 327 327 325 323 323 323 322 323 324 324 324 325 324 325
319 321 323 324 325 325 325 323 321 325 325 326 327 328 327 326 326 328 329 327 326 324 325 323 324 324 325 324 324 323 323 323
317 321 321 322 324 325 325 325 323 323 324 325 327 327 326 326 327 327 327 327 326 326 324 324 323 324 325 325 325 324 324 324
314 317 321 322 323 325 325 326 327 325 324 324 325 327 326 326 327 327 327 326 325 325 324 324 324 324 324 324 323 323 323 323
313 314 317 322 323 324 325 326 327 326 324 323 324 327 327 325 326 326 327 327 326 326 325 325 325 324 323 324 324 323 323 322
311 313 314 316 322 324 324 325 326 327 326 326 325 326 325 325 326 326 325 325 325 325 324 324 324 322 308 303 312 323 321 321
311 313 315 316 317 323 325 325 326 326 326 325 325 326 325 325 325 324 324 324 325 323 323 323 323 324 303 300 299 317 318 320
312 313 314 316 318 319 323 325 326 325 324 324 325 326 326 325 325 323 324 325 324 324 324 324 324 323 301 300 297 313 315 316

GFSFLT1_sfc_thetae_084.txt.gz
Theta_e
324 326 327 327 327 328 328 327 326 327 325 322 319 318 318 317 317 317 318 319 320 319 319 320 320 319 319 318 316 316 315 315
325 327 327 327 328 325 325 324 325 324 322 318 317 315 316 315 316 316 316 316 318 318 318 318 319 317 317 317 315 314 312 315
323 326 326 326 325 324 324 323 323 322 322 320 318 316 316 315 315 315 315 315 316 316 317 316 316 315 316 316 315 313 313 316
322 324 325 326 324 323 323 322 322 322 322 320 318 317 315 313 312 313 314 316 316 315 316 315 316 315 315 316 315 314 312 314
322 324 324 325 324 324 322 321 321 321 322 318 316 312 310 311 310 312 312 315 316 315 315 316 317 317 316 315 318 316 317 312
319 324 325 326 325 323 322 320 321 322 322 318 316 313 312 312 311 309 311 315 318 319 318 319 317 321 320 320 319 318 319 317
318 325 325 324 325 323 320 319 320 321 321 318 316 314 313 312 310 309 311 314 316 317 320 320 320 320 321 320 320 319 318 318
317 322 322 323 323 322 320 319 318 320 321 320 318 316 314 313 312 311 311 312 313 315 318 319 319 319 321 321 320 320 320 318
317 322 323 323 323 322 320 319 319 319 320 320 321 318 317 315 315 314 312 312 312 315 317 317 317 319 319 320 319 319 319 319
316 320 323 323 323 322 320 320 320 319 319 321 321 321 318 317 316 315 314 314 314 314 316 317 316 318 318 318 319 317 319 320
315 317 323 323 324 324 321 322 321 320 320 320 321 321 321 320 319 316 315 315 315 315 315 315 316 316 317 317 318 319 318 319
317 318 323 324 325 324 322 321 321 322 321 320 320 321 322 322 321 320 317 316 316 315 314 315 315 315 316 316 316 316 318 317
319 320 321 323 324 324 323 322 320 323 323 321 320 321 321 321 321 322 320 317 317 316 316 315 316 316 316 315 315 315 315 316
316 319 320 322 323 324 323 323 321 321 324 323 322 322 321 321 321 323 322 321 320 319 318 318 317 317 316 316 316 316 316 316
311 316 320 321 323 324 324 324 324 322 322 323 322 322 323 322 322 322 323 324 322 322 321 320 319 319 318 318 318 318 318 318
310 311 313 320 321 323 324 325 325 324 321 320 322 323 323 324 324 323 322 323 323 323 321 320 320 319 319 318 318 318 317 318
311 312 312 313 315 322 323 324 325 325 323 321 321 323 323 323 322 322 322 322 322 322 321 320 319 319 308 303 311 318 317 317
311 312 313 313 314 316 322 324 325 325 324 324 323 322 322 323 322 321 321 321 322 320 320 320 319 320 304 302 300 317 317 317
311 313 314 316 317 317 317 318 324 324 324 324 324 324 322 322 322 321 320 320 320 320 320 320 320 320 303 300 298 311 315 315

GFSFLT1_sfc_thetae_087.txt.gz
Theta_e
316 320 322 321 325 325 323 322 321 323 322 319 319 318 317 318 318 323 326 327 326 326 323 322 322 321 318 317 314 314 315 315
318 320 321 320 321 323 322 320 319 322 319 316 316 314 315 315 316 319 323 322 322 321 320 319 319 319 316 315 314 313 312 313
317 319 320 320 320 321 320 320 319 321 320 318 318 315 315 315 315 316 319 320 320 320 319 318 318 316 315 312 311 311 310 312
317 318 318 318 318 319 319 318 319 321 321 319 317 315 313 312 312 313 316 319 320 319 318 318 316 315 313 311 311 311 310 311
318 318 318 317 317 320 319 319 319 320 321 317 314 312 310 311 312 313 313 316 317 317 316 316 316 316 313 313 313 312 312 309
317 318 319 319 318 318 318 319 320 320 320 318 315 312 313 311 311 311 313 313 313 314 315 314 314 315 315 314 314 314 314 312
319 320 320 319 318 317 317 317 319 320 319 317 315 313 311 309 309 309 311 312 313 313 313 313 315 316 316 315 315 315 316 315
318 318 319 318 317 316 316 316 318 320 319 317 316 314 312 310 308 309 310 311 311 312 314 313 315 317 318 318 317 317 316 317
318 319 319 318 317 315 316 316 317 319 319 317 317 315 313 312 310 309 310 311 312 312 315 317 316 317 318 318 318 317 318 317
317 318 319 318 317 315 315 315 316 318 319 318 317 316 313 313 311 311 311 311 313 313 314 317 316 317 317 318 316 316 317 316
317 318 318 319 318 317 316 316 316 317 319 320 319 317 315 314 313 312 311 311 313 313 313 315 316 317 317 317 317 317 316 316
308 318 319 319 319 317 317 317 317 316 317 320 320 320 317 315 314 313 313 312 312 312 312 314 315 315 316 315 315 316 316 316
310 318 318 318 319 318 316 317 318 317 317 318 319 320 320 318 317 315 315 313 313 312 312 313 314 315 315 314 314 314 314 315
306 313 317 318 318 319 317 317 318 318 318 317 317 318 319 320 318 319 318 315 313 313 312 312 312 312 313 313 313 313 313 313
308 307 311 317 319 319 319 318 318 318 319 317 316 316 317 318 320 320 320 319 316 313 313 313 312 312 312 313 313 313 313 313
308 308 307 308 312 316 320 320 319 318 317 319 317 318 318 318 318 319 320 320 319 316 314 313 313 312 312 312 313 313 313 312
309 310 312 311 312 312 316 320 320 320 317 317 319 320 319 319 319 319 319 319 320 319 317 316 314 314 306 302 309 314 313 313
308 309 312 312 312 314 313 315 319 321 319 318 318 319 320 320 320 320 319 318 319 320 319 319 318 318 303 301 300 315 315 315
307 310 310 310 309 310 313 315 316 317 320 320 319 318 319 320 320 319 319 319 319 318 318 319 319 319 302 300 297 311 315 315

GFSFLT1_sfc_thetae_090.txt.gz
Theta_e
314 321 322 324 325 325 324 322 320 321 320 319 319 318 318 318 317 325 329 328 327 326 326 321 318 314 314 316 314 313 313 313
316 320 320 323 324 323 322 319 320 320 317 317 316 314 315 316 316 320 326 327 326 325 323 321 319 313 315 316 315 314 313 312
316 318 318 321 321 321 320 319 320 319 317 318 317 315 315 315 316 318 324 324 326 325 323 321 320 315 316 315 314 311 312 313
315 316 317 319 319 319 319 319 319 319 318 318 316 314 314 312 313 315 320 323 322 323 322 320 319 317 315 314 314 313 312 310
315 316 315 318 319 320 319 318 317 319 318 316 313 312 311 312 312 313 317 320 321 321 320 319 318 316 314 313 314 313 313 310
315 316 316 317 319 318 318 317 317 318 318 317 314 312 313 313 312 312 313 316 318 319 319 318 317 317 315 313 312 312 313 310
316 317 317 316 317 317 316 316 316 318 318 317 314 313 311 310 310 311 312 312 313 315 316 317 317 316 315 314 314 313 313 312
315 315 314 315 315 315 316 315 315 317 317 316 315 314 311 310 310 311 311 311 311 311 314 313 315 316 316 315 315 313 314 314
315 316 315 314 315 315 316 315 315 317 317 316 316 315 311 310 311 311 312 312 313 313 312 311 312 315 316 315 314 315 313 315
315 317 316 315 314 315 315 315 316 317 317 317 316 315 312 311 311 312 312 313 313 313 312 312 312 314 316 316 314 312 313 313
316 317 317 317 316 315 315 315 315 317 318 317 317 316 314 313 312 308 309 311 313 313 313 315 315 314 315 315 316 315 314 314
316 317 318 317 316 315 314 314 315 315 318 317 317 317 315 314 311 309 309 309 310 311 313 314 316 315 315 315 315 315 314 314
312 317 317 316 315 314 314 314 315 315 317 318 318 318 316 314 312 311 311 309 310 311 311 312 313 314 316 314 313 314 313 313
309 314 315 316 315 315 315 315 315 316 316 317 317 318 317 315 314 313 312 311 310 310 311 310 311 312 313 313 314 313 313 315
307 307 313 316 317 316 315 315 316 317 316 315 316 316 317 318 317 316 314 313 311 311 311 311 311 311 312 312 312 312 312 312
309 309 310 311 313 315 318 317 317 317 316 316 315 316 317 317 318 318 317 315 313 313 311 311 311 311 311 311 312 311 311 311
310 310 310 309 310 311 313 317 318 318 316 316 317 316 316 316 316 318 318 317 317 315 313 311 310 311 303 300 306 310 310 310
308 307 306 306 306 309 310 311 314 318 317 317 318 318 317 316 317 317 317 317 318 317 315 313 312 312 301 299 298 309 309 309
302 302 301 301 303 305 305 306 307 310 311 314 315 317 318 319 317 317 317 317 316 317 317 317 316 315 301 299 296 307 309 309

GFSFLT1_sfc_thetae_093.txt.gz
Theta_e
311 319 321 323 322 323 322 322 321 320 320 318 316 316 319 319 321 326 328 328 327 328 325 320 318 316 313 314 312 311 311 314
310 320 320 322 322 322 322 320 321 321 318 315 315 315 315 315 315 316 324 328 326 327 324 319 318 313 314 315 312 312 311 313
311 318 318 321 322 323 322 321 320 319 319 317 316 315 315 315 316 316 318 326 327 326 325 320 317 313 313 315 312 310 310 315
313 316 317 320 321 321 321 320 320 319 316 314 313 313 313 313 313 316 318 324 325 325 324 321 318 313 314 315 313 312 310 309
314 315 316 319 320 321 320 321 319 318 315 313 313 311 309 312 313 314 318 322 324 324 323 321 318 314 315 315 315 314 313 310
312 315 316 319 319 319 320 319 318 317 315 314 312 311 311 311 312 313 316 318 321 322 322 321 319 315 315 315 313 314 314 312
312 316 317 318 318 318 318 317 316 316 314 313 313 312 312 310 311 311 313 314 316 319 320 319 317 315 314 314 312 314 313 313
310 313 314 315 316 317 317 316 315 316 314 313 314 313 312 308 311 312 311 311 313 315 318 316 315 314 316 315 314 313 313 313
311 314 314 315 315 316 316 315 315 316 315 313 315 314 311 310 311 313 313 313 314 313 315 317 316 317 316 315 314 314 314 312
312 314 314 315 315 315 315 315 316 315 315 314 315 315 313 309 310 313 312 313 313 312 313 313 315 315 316 316 314 313 313 313
313 314 314 315 315 315 315 315 315 315 315 315 314 313 312 310 309 310 309 310 311 311 311 311 311 313 315 315 315 314 313 313
313 315 315 315 315 315 314 315 315 315 316 315 314 313 312 311 310 309 309 310 311 311 311 311 311 311 312 313 314 314 313 312
314 315 315 314 314 314 314 314 314 316 316 316 315 315 313 312 310 309 308 309 310 310 311 311 312 312 312 312 312 313 312 311
313 314 314 313 312 312 313 313 313 314 317 316 314 314 313 313 312 310 308 308 308 310 310 310 311 312 313 312 312 312 312 313
309 310 313 315 315 315 315 315 315 315 315 316 315 314 314 313 313 312 310 309 308 308 309 310 310 311 312 313 313 312 311 312
307 307 308 310 310 313 315 316 316 316 315 314 315 315 315 315 313 313 312 311 310 309 309 309 309 310 310 311 311 310 310 310
304 304 304 304 307 306 308 310 313 317 316 315 316 315 315 314 315 314 314 312 312 311 310 309 308 309 302 299 305 310 310 309
299 299 299 300 302 303 302 304 308 312 315 316 317 316 315 316 316 316 317 316 315 313 312 311 310 310 300 299 297 308 309 309
296 296 295 295 299 302 302 302 303 303 303 303 304 306 309 315 317 316 316 316 317 316 316 315 313 312 299 298 296 305 308 309

GFSFLT1_sfc_thetae_096.txt.gz
Theta_e
303 313 317 321 322 322 321 323 321 318 319 318 317 318 318 322 327 328 328 329 328 327 326 322 322 318 316 315 311 313 314 314
300 305 314 319 320 320 320 321 321 322 320 319 317 317 317 315 315 322 327 328 327 327 325 320 320 318 316 314 312 311 313 315
301 306 317 319 319 321 320 322 322 322 321 320 317 317 316 312 313 317 318 323 327 327 324 320 318 316 315 312 312 311 312 315
302 311 316 319 318 319 321 321 321 322 320 317 315 314 313 312 313 312 313 317 324 327 323 321 318 316 314 313 313 313 311 313
302 311 315 318 319 321 321 321 321 320 318 315 313 312 309 310 310 312 317 316 322 324 324 321 319 316 315 315 313 313 313 311
306 312 316 318 320 321 322 321 320 319 316 314 312 308 312 313 309 314 316 318 319 324 323 321 318 315 316 316 313 313 314 313
307 314 315 317 321 321 320 319 319 318 316 312 311 309 310 310 311 312 315 317 320 322 322 321 319 315 314 315 314 314 314 313
302 311 314 316 318 318 319 318 317 316 315 312 310 310 310 311 311 313 312 313 315 318 320 319 318 316 316 315 314 314 313 313
300 309 314 315 317 318 318 316 316 316 315 312 311 310 310 312 309 313 313 314 315 317 318 317 316 315 316 315 314 314 314 313
301 308 314 315 317 317 317 316 316 316 315 313 311 311 309 309 309 310 314 314 315 314 316 315 313 314 315 315 314 313 314 314
306 309 313 315 316 317 317 317 316 316 316 314 312 311 311 309 309 309 310 313 314 313 313 313 314 313 315 315 314 314 312 313
311 313 314 315 316 316 315 315 315 315 315 315 312 310 310 309 308 308 308 309 310 312 313 312 313 314 315 315 314 314 312 312
313 313 313 313 314 314 313 315 315 315 316 315 315 311 310 308 307 307 308 308 309 309 310 311 311 312 313 314 314 315 314 312
312 312 312 311 312 313 313 313 315 316 316 315 314 314 310 309 308 307 307 307 308 308 309 310 311 312 311 311 311 311 311 313
307 307 311 313 312 312 313 313 314 315 316 316 314 314 314 310 309 308 307 307 307 307 308 309 310 310 312 311 310 310 311 311
301 302 304 306 308 311 316 316 316 315 315 315 315 315 315 312 310 309 309 308 307 307 308 308 309 310 310 311 311 311 310 310
297 297 299 301 302 303 305 307 309 316 315 314 315 315 316 315 314 311 310 309 308 307 306 307 307 308 301 299 306 310 310 310
294 294 294 297 299 300 300 302 304 305 305 306 308 312 315 315 315 314 312 311 310 309 308 308 307 308 299 298 297 309 309 309
292 291 292 292 296 298 298 299 299 299 298 298 298 301 303 305 309 313 315 316 314 313 312 312 311 311 299 297 296 305 308 308

GFSFLT1_sfc_thetae_099.txt.gz
Theta_e
311 311 320 326 328 329 328 329 328 327 330 330 330 328 327 329 330 329 330 331 331 330 327 325 323 320 316 317 316 318 318 321
311 312 312 321 327 327 327 327 325 324 325 323 323 323 325 325 326 329 329 330 328 328 325 324 324 320 317 316 316 316 318 321
309 310 311 318 323 326 326 327 324 326 326 325 325 323 322 324 324 323 327 331 329 327 324 323 322 321 318 316 316 316 318 319
309 310 312 317 321 325 325 327 325 327 326 324 320 318 317 317 319 322 321 323 326 328 325 324 322 320 318 317 317 318 315 319
309 310 313 318 322 325 326 327 325 325 324 321 320 319 316 316 320 320 323 323 326 325 325 323 321 320 317 316 317 318 318 316
308 310 312 318 322 324 326 326 325 324 322 322 319 317 318 320 320 320 322 323 324 326 325 323 320 319 318 316 315 318 318 317
309 311 314 319 323 324 325 324 323 322 320 320 317 317 319 317 316 318 319 320 321 324 325 324 320 320 319 317 317 315 316 317
308 308 315 320 321 323 324 323 320 320 320 317 317 320 319 316 317 318 317 317 318 322 323 323 320 322 320 318 315 314 316 317
311 309 316 319 321 323 322 321 320 319 319 316 319 320 319 319 318 318 318 316 317 321 324 321 320 319 319 317 316 315 315 316
313 312 312 319 321 322 322 320 320 319 317 316 319 319 319 318 318 318 318 318 318 319 319 319 318 317 317 316 315 314 315 315
313 314 311 318 321 322 322 319 318 318 317 316 319 319 319 319 319 318 318 317 317 317 318 316 315 316 316 316 314 314 313 314
314 315 316 318 320 321 319 318 317 316 316 316 319 318 318 317 318 318 318 317 317 316 316 317 315 315 316 315 314 315 314 313
314 314 316 316 317 317 316 317 316 317 317 317 318 318 317 316 316 316 318 318 315 317 316 315 315 315 317 317 314 314 314 313
305 311 312 313 314 314 315 315 316 317 318 317 317 317 316 316 315 315 316 317 318 317 317 314 313 314 315 316 315 315 314 313
299 301 303 306 312 314 315 315 316 317 317 316 316 317 316 316 316 315 314 315 316 316 317 317 318 316 314 314 314 314 315 316
296 296 298 300 302 305 308 314 318 318 316 316 316 317 317 316 316 316 315 314 315 316 316 316 317 317 316 316 314 313 313 314
294 294 294 297 298 300 301 302 311 317 317 316 317 316 316 315 315 317 315 315 314 314 314 314 315 314 302 300 310 316 315 315
291 292 292 292 296 298 297 298 299 299 300 301 303 306 308 310 315 315 314 315 315 314 314 314 314 315 298 298 298 315 316 316
289 289 290 291 295 296 296 295 295 294 294 294 296 298 299 300 302 302 303 307 314 313 313 313 313 301 291 294 295 307 310 311

GFSFLT1_sfc_thetae_102.txt.gz
Theta_e
316 318 319 323 329 333 336 337 338 333 333 338 337 333 332 333 332 335 337 334 335 335 333 326 323 320 319 321 320 321 322 327
316 318 320 321 325 331 334 335 337 331 331 331 330 327 328 333 332 333 334 335 333 332 330 325 322 320 319 319 318 318 319 323
314 317 319 321 322 329 332 333 336 334 335 334 333 330 329 330 330 333 335 334 333 331 328 327 323 321 319 318 318 317 318 322
313 314 317 320 322 326 329 332 335 334 335 334 332 331 328 328 328 326 331 334 332 329 328 325 323 321 320 320 320 320 317 319
311 313 315 318 321 326 329 331 334 334 335 332 329 326 324 327 327 325 326 331 330 329 327 326 324 321 319 321 322 320 321 317
314 314 314 317 320 325 329 330 332 333 334 332 329 329 329 329 327 325 326 329 331 329 326 327 325 322 321 319 322 322 321 320
316 316 316 317 319 325 329 329 331 332 331 331 330 329 328 326 325 325 325 324 327 327 329 325 323 323 321 319 318 321 321 323
318 317 316 316 319 326 328 329 329 329 327 329 330 328 329 327 325 325 324 321 323 325 327 327 323 322 322 318 317 317 319 318
319 320 319 317 322 327 328 328 327 325 324 327 329 328 329 327 325 325 325 323 323 324 325 326 325 323 320 319 317 317 318 318
317 322 321 318 324 327 328 326 325 323 322 323 324 330 328 326 326 326 324 323 321 322 324 322 322 323 323 322 321 318 317 317
309 321 321 318 325 328 326 325 323 321 322 322 325 328 328 327 325 324 324 324 323 322 320 323 320 320 319 320 318 316 315 315
304 313 322 321 324 326 323 323 321 320 320 321 325 327 327 326 325 324 323 324 322 321 321 322 318 317 316 316 315 315 314 314
300 304 314 319 322 321 320 320 319 319 319 320 324 326 325 324 324 324 323 321 322 320 320 321 319 319 319 318 316 316 314 313
299 300 303 310 316 318 319 319 317 318 318 319 321 322 324 323 323 324 323 321 320 320 321 320 318 319 320 319 318 318 317 316
296 296 299 301 305 314 316 316 318 318 319 320 319 320 322 322 322 322 322 321 319 320 319 321 320 320 319 319 319 317 319 319
292 293 295 298 300 301 304 314 317 318 318 318 318 319 320 319 319 319 321 321 320 320 320 321 321 320 319 319 318 318 318 317
291 291 292 295 297 297 298 300 302 305 306 308 317 318 317 317 319 318 318 319 319 319 319 319 320 319 305 302 312 319 318 318
288 288 290 293 295 296 295 295 297 297 298 299 300 304 306 308 314 316 318 319 319 318 318 319 318 313 291 295 298 319 320 319
286 286 288 291 294 294 294 294 294 293 292 294 295 297 298 299 300 301 303 306 303 307 305 313 299 292 289 290 291 304 310 314

GFSFLT1_sfc_thetae_105.txt.gz
Theta_e
316 316 318 321 324 329 333 340 344 343 341 342 341 339 337 337 337 336 337 338 339 337 336 335 335 331 328 325 324 325 325 325
318 319 319 320 323 328 332 338 342 340 335 336 337 335 331 333 333 336 338 337 337 336 335 329 327 323 322 322 322 322 322 324
316 318 319 321 322 324 331 334 338 340 336 336 337 335 331 334 334 335 335 335 336 335 333 328 324 320 320 320 320 320 320 324
314 316 318 320 321 324 326 332 335 339 337 337 337 336 332 330 331 332 333 334 335 335 333 328 324 322 319 319 320 320 317 320
312 314 315 318 323 327 325 330 333 337 337 336 335 331 328 330 331 330 332 334 333 334 332 327 325 321 319 320 322 321 319 317
316 317 318 317 320 325 328 328 331 335 337 337 336 332 332 332 331 330 329 332 332 332 330 330 325 324 322 322 323 323 322 319
319 320 321 319 320 322 327 327 329 334 336 338 337 333 332 330 330 328 326 329 329 331 330 327 326 325 323 322 323 323 323 322
318 320 322 321 319 321 326 326 327 332 335 336 335 333 333 332 329 327 327 325 326 330 331 329 325 324 325 322 322 321 322 320
316 320 323 323 322 320 322 324 327 329 333 334 335 334 333 331 330 328 327 326 325 327 327 329 328 326 323 321 321 320 321 321
313 315 317 325 324 321 324 327 328 329 332 333 333 334 333 331 330 329 328 329 325 326 327 327 325 325 323 320 319 317 318 319
308 308 311 317 324 324 329 330 328 330 327 327 330 331 333 331 330 328 328 326 324 325 325 325 327 325 323 321 319 318 318 318
303 302 303 310 317 327 328 329 329 325 323 324 327 329 331 331 328 327 326 324 324 323 324 322 320 319 320 321 321 319 317 316
301 298 297 301 305 324 323 324 323 324 321 322 326 329 329 328 326 326 325 322 323 323 324 321 322 320 319 318 315 315 315 313
300 295 293 297 301 309 320 321 320 320 320 322 325 326 326 326 326 325 323 322 322 322 323 321 320 321 320 318 317 316 316 317
299 293 291 293 298 301 311 318 319 318 320 321 321 323 324 326 325 323 321 322 320 320 321 321 320 319 320 320 319 319 319 319
294 294 291 290 295 297 299 304 316 318 318 319 319 322 323 325 323 321 321 321 320 320 320 321 321 320 319 320 320 318 319 318
289 291 289 288 293 293 295 296 298 303 303 303 315 319 320 320 319 319 320 320 320 320 319 320 321 320 292 299 310 320 319 319
287 286 287 288 291 293 292 293 295 295 295 297 300 304 305 306 315 317 317 318 320 319 319 319 307 297 290 291 293 317 319 319
286 285 285 288 290 291 292 292 292 292 292 293 295 297 298 299 301 302 302 301 299 300 299 299 295 290 289 290 289 310 312 309

GFSFLT1_sfc_thetae_111.txt.gz
Theta_e
309 309 310 309 308 314 335 337 340 339 338 337 335 333 333 333 332 332 332 334 333 331 330 328 329 328 328 326 326 325 326 325
309 309 310 309 307 313 335 335 337 338 337 335 334 331 331 332 331 332 332 331 332 330 329 328 328 327 328 328 326 325 323 324
308 307 306 308 309 310 335 336 337 337 337 336 333 329 327 327 328 330 332 331 331 330 328 326 328 326 325 325 324 322 323 325
306 307 305 308 309 309 333 336 338 337 336 332 330 329 328 325 324 324 328 330 330 331 327 325 325 324 323 324 323 321 319 323
309 311 311 310 310 314 319 337 337 336 335 333 331 328 326 326 324 324 326 327 328 328 325 323 321 320 320 321 323 322 321 319
311 312 313 315 317 317 319 318 336 336 335 333 330 327 326 324 324 323 325 326 326 328 324 321 320 319 320 320 320 321 321 319
308 309 310 310 310 312 315 318 319 334 333 331 330 328 326 324 324 324 324 326 326 327 325 322 321 319 319 319 320 320 320 320
303 303 303 303 303 307 310 313 315 319 331 329 329 328 327 324 324 324 323 322 325 325 324 322 321 321 320 319 319 320 320 319
301 300 299 299 300 303 305 306 309 313 330 330 329 329 328 327 326 325 324 324 322 324 325 323 322 321 320 319 320 320 319 319
298 298 297 297 298 300 301 304 307 316 323 331 328 330 328 327 328 326 324 323 322 323 324 324 324 321 321 320 320 320 319 318
296 295 295 296 297 299 300 304 307 323 320 330 329 328 329 328 328 325 322 322 323 320 323 323 322 322 321 320 319 320 319 319
294 294 294 294 296 297 298 300 304 320 322 327 328 328 327 326 327 325 324 322 320 320 320 322 322 322 321 320 319 319 318 318
292 292 292 292 294 295 295 297 300 305 320 320 322 324 325 325 324 323 322 319 320 318 318 319 322 322 321 319 317 317 317 316
290 290 290 291 292 293 293 295 298 301 314 318 319 320 323 323 323 321 320 320 319 318 319 320 320 321 320 319 318 317 317 316
289 288 289 290 292 292 292 293 295 297 302 306 313 320 322 323 322 320 320 320 319 319 321 320 319 319 319 319 318 317 317 317
287 287 287 289 290 292 292 292 293 295 296 298 299 303 320 320 320 320 320 320 319 319 319 318 319 318 314 318 317 316 315 315
286 286 287 287 288 290 291 291 291 292 293 294 296 297 300 311 318 319 318 318 318 317 317 316 304 300 292 293 310 316 316 315
285 285 285 287 287 289 289 290 291 290 290 292 293 293 294 296 298 307 310 314 312 310 305 301 296 294 290 292 293 316 313 307
285 285 285 286 288 288 289 288 289 288 288 289 291 291 292 292 292 290 291 292 294 293 292 292 290 290 289 291 294 300 295 293

GFSFLT1_sfc_thetae_117.txt.gz
Theta_e
304 304 303 303 317 333 337 339 338 338 338 334 334 331 334 334 334 335 334 334 332 330 329 326 327 328 328 327 326 326 324 324
304 306 306 302 300 308 331 334 337 337 335 332 332 331 332 332 333 334 334 334 332 330 328 326 328 329 328 327 326 324 323 324
307 312 312 310 311 307 316 331 335 336 337 335 335 334 330 332 328 329 332 332 331 330 328 326 328 329 327 327 326 324 324 324
307 305 303 304 305 307 314 325 331 335 337 336 327 327 326 325 327 329 329 330 330 330 328 327 327 328 327 327 327 324 321 323
302 301 300 300 301 304 307 312 322 332 334 333 328 329 327 329 330 331 329 329 328 329 328 326 326 327 326 327 326 325 324 320
296 297 298 298 299 300 303 306 309 315 323 333 330 327 327 324 325 328 327 327 328 328 327 325 325 326 328 326 324 324 323 321
293 295 296 296 297 298 301 303 305 309 313 316 330 329 326 323 322 325 326 325 326 327 327 326 325 325 322 322 322 323 322 320
291 291 292 294 294 296 299 301 302 304 309 311 315 330 328 326 325 325 325 325 324 325 326 326 325 322 319 319 321 321 320 320
290 291 292 292 293 295 296 298 300 302 305 308 312 317 330 328 328 327 325 325 325 326 326 325 324 320 320 321 320 319 319 319
290 291 292 293 293 294 295 296 298 300 301 304 308 317 325 327 326 326 326 325 325 323 326 324 322 320 321 319 318 317 318 319
290 290 291 292 293 294 294 296 296 297 299 302 307 316 321 328 325 324 325 325 324 323 325 324 321 320 320 318 317 317 317 318
289 289 291 292 293 292 293 294 294 295 297 300 304 308 323 327 325 324 324 323 323 322 324 323 321 319 319 317 317 317 316 317
288 288 289 290 290 291 291 292 293 294 296 298 300 303 308 325 324 323 322 321 322 322 323 323 322 321 319 318 316 317 316 316
287 287 287 288 289 290 290 291 291 293 294 295 297 298 301 305 320 322 322 321 321 322 323 322 321 321 319 318 318 317 317 318
285 285 286 287 288 289 289 290 290 292 292 293 293 295 297 298 305 320 321 321 321 321 322 322 321 320 320 319 319 318 318 318
284 284 285 286 287 287 288 288 289 289 290 291 291 293 295 295 297 300 314 320 320 320 320 320 320 320 320 319 319 318 317 317
283 283 284 285 286 286 286 287 287 288 287 287 290 291 292 292 293 293 293 296 311 318 318 318 316 303 292 299 313 318 317 316
281 282 283 284 285 287 285 285 286 286 285 286 287 289 290 290 291 291 290 289 290 292 296 299 295 292 290 292 297 317 316 316
279 280 282 282 284 286 287 285 284 284 283 284 285 286 287 288 289 288 289 289 287 287 288 290 290 289 291 292 291 306 299 295

GFSFLT1_sfc_thetae_120.txt.gz
Theta_e
304 302 301 312 327 334 337 338 336 334 333 332 332 331 331 332 332 332 331 333 331 330 329 327 328 329 328 327 326 326 325 324
303 310 309 302 303 302 327 335 337 336 335 332 332 331 332 333 332 333 332 332 331 330 329 326 329 329 327 326 327 324 323 324
306 305 304 303 303 305 308 324 334 336 336 335 333 333 334 334 334 333 333 333 331 331 330 327 328 328 328 327 326 323 324 324
301 300 300 299 299 300 304 308 326 335 337 336 329 329 326 328 328 330 332 333 332 331 330 329 328 329 328 327 327 325 321 323
294 295 297 296 296 299 302 306 311 324 334 333 331 330 329 331 331 332 332 333 333 331 329 328 329 329 329 328 328 327 324 319
291 292 294 296 296 297 300 306 309 312 316 331 329 329 329 325 327 328 331 328 329 330 328 327 328 328 328 326 326 326 325 323
292 293 294 294 296 297 299 302 305 308 312 314 320 328 323 323 324 326 327 327 327 327 327 326 326 327 327 327 326 325 323 323
291 291 292 294 294 295 298 299 301 303 306 308 311 315 321 325 325 327 325 325 326 326 327 327 327 327 327 327 325 323 323 322
291 291 292 292 293 294 295 296 298 299 302 303 307 310 316 322 328 326 326 326 326 327 328 328 328 326 325 324 323 323 323 322
289 291 291 292 292 293 294 295 296 297 298 301 304 307 311 317 324 326 326 325 323 324 327 327 326 325 323 322 323 321 320 320
289 290 290 291 292 292 293 294 294 295 297 298 301 303 306 309 318 327 324 324 324 325 325 326 325 323 322 322 321 320 319 318
288 289 290 291 291 291 291 291 292 293 295 296 298 300 302 306 319 325 325 322 323 323 324 324 324 322 321 321 320 318 317 316
286 287 288 288 289 290 290 290 290 292 294 295 296 297 299 301 304 311 323 322 322 321 322 324 323 321 321 319 317 317 316 315
285 286 286 287 287 288 288 289 289 290 291 292 293 294 295 297 299 303 314 322 322 322 323 323 322 321 319 319 318 317 316 315
284 283 284 286 287 287 287 287 288 289 290 289 290 292 293 294 296 297 299 304 320 321 322 323 322 321 320 319 318 316 315 316
282 282 283 284 285 286 286 286 287 288 288 288 288 290 292 292 294 295 295 295 297 300 320 321 322 321 320 319 318 317 317 316
280 281 282 282 284 285 284 284 285 286 285 286 288 289 289 290 290 292 292 293 293 293 294 300 308 299 294 299 312 317 317 317
278 279 280 281 282 284 284 283 284 283 283 284 285 286 287 288 288 289 289 289 290 290 290 290 290 291 290 297 297 318 317 317
278 278 278 280 282 283 285 283 282 282 281 282 283 284 284 286 286 286 287 288 287 287 288 288 288 289 289 291 294 307 301 294

GFSFLT1_sfc_thetae_123.txt.gz
Theta_e
306 309 310 311 319 335 340 339 339 338 337 337 337 337 337 338 336 337 337 335 335 336 336 335 335 333 333 332 331 330 330 329
308 312 312 310 313 322 337 339 339 337 335 334 334 333 335 336 336 338 338 339 335 337 335 334 333 333 332 332 330 327 327 328
306 307 306 307 308 311 315 329 340 338 337 337 337 337 337 337 337 336 338 338 338 338 336 333 332 332 332 331 329 326 327 327
298 301 302 303 304 306 310 314 321 339 341 339 338 338 337 334 334 334 334 337 338 338 337 334 332 333 330 329 328 329 324 327
296 297 299 300 301 304 309 315 319 324 335 338 335 334 331 334 333 333 333 337 338 338 336 334 333 333 333 331 332 333 331 325
294 295 297 298 299 301 306 312 313 315 323 329 335 334 338 338 337 334 333 335 337 337 335 333 333 333 333 331 331 332 331 329
293 294 295 296 298 300 303 305 306 309 312 313 317 331 334 332 335 333 332 334 333 333 333 333 332 331 332 331 332 333 331 329
292 291 292 293 294 296 298 300 300 304 305 307 309 312 315 323 334 333 332 331 330 330 331 330 331 331 331 331 330 333 332 330
290 291 291 292 293 294 295 297 297 300 301 303 306 309 311 315 319 327 331 330 332 331 331 332 332 330 330 330 329 329 329 329
289 290 292 293 293 294 294 295 296 298 299 302 302 305 306 307 311 316 326 332 333 333 332 330 332 331 329 329 328 327 326 326
286 288 289 291 292 293 293 294 292 294 296 298 299 300 302 304 308 313 321 327 330 331 331 332 332 331 328 326 324 325 324 324
285 286 288 289 290 291 291 291 292 292 293 295 296 297 299 301 302 304 308 323 327 327 329 329 329 328 326 323 323 324 323 322
284 285 285 287 287 289 289 290 291 292 292 293 294 295 296 297 298 300 302 305 326 326 326 327 328 327 325 322 321 322 321 320
284 284 284 285 286 287 287 288 289 291 291 292 292 292 293 293 295 297 298 300 303 321 324 324 324 325 324 322 322 322 320 321
282 282 283 284 285 285 286 286 288 289 290 290 290 291 291 292 293 294 295 297 298 299 302 318 323 323 323 322 321 321 320 320
280 280 281 282 284 286 285 286 287 288 287 288 288 289 291 291 291 292 292 293 294 296 295 296 296 299 294 294 315 320 318 318
279 279 280 281 282 284 283 284 285 286 286 286 287 288 288 289 290 290 290 290 290 291 291 292 292 292 289 291 295 317 318 317
278 278 279 280 281 284 284 283 284 283 283 283 284 286 286 286 287 288 289 289 288 287 287 288 288 288 289 290 291 306 317 317
278 277 278 279 281 283 284 284 283 282 281 281 283 284 284 286 286 286 286 287 287 286 286 286 286 286 287 289 289 291 290 289

GFSFLT1_sfc_thetae_126.txt.gz
Theta_e
305 305 307 313 317 319 319 330 342 343 343 343 341 341 341 341 339 340 342 340 342 341 339 339 340 339 337 337 335 335 337 337
305 306 310 316 318 320 318 325 340 342 340 337 337 337 339 339 340 342 342 339 339 339 340 339 338 337 337 337 335 333 333 336
305 309 311 313 314 316 319 327 333 342 341 338 338 338 338 339 340 341 342 342 341 337 339 337 336 339 336 336 335 330 333 334
302 304 308 310 311 312 315 322 335 340 341 341 339 339 339 338 339 338 340 341 342 340 342 342 340 339 335 335 334 331 328 330
296 299 302 303 305 308 313 320 324 333 337 339 340 338 336 339 340 341 340 341 341 342 342 342 341 337 338 334 334 334 332 326
293 295 298 299 300 302 306 312 318 324 331 328 336 338 340 341 339 339 338 338 341 341 341 342 340 336 337 335 333 333 336 334
292 294 296 296 299 299 302 304 307 313 319 318 323 333 339 337 338 337 336 336 336 338 341 341 339 337 335 336 334 335 335 336
289 290 292 294 296 297 300 300 301 305 309 311 313 316 321 324 326 330 335 334 335 335 336 336 335 336 335 337 337 334 335 335
286 288 290 292 293 296 296 297 298 301 303 306 308 311 313 315 315 319 321 327 335 335 335 335 335 334 337 338 339 337 338 338
286 287 288 289 292 292 294 295 295 297 300 303 304 305 309 312 314 319 319 323 325 335 334 333 331 332 333 336 334 332 333 336
284 285 287 288 290 293 294 295 295 295 296 300 301 302 304 305 308 308 307 312 316 326 333 332 331 331 331 331 331 332 331 331
283 284 285 287 287 289 291 293 294 294 295 295 297 298 300 300 300 300 301 304 309 317 330 331 331 330 330 331 330 330 328 329
284 284 284 285 285 287 288 290 292 293 294 294 294 294 295 295 296 297 298 300 302 305 310 329 328 328 331 329 328 327 326 324
283 283 283 283 285 285 287 288 290 292 293 292 292 292 293 293 293 294 295 296 297 299 300 300 306 322 325 326 326 326 325 324
283 283 283 283 285 284 285 286 288 291 291 292 291 291 291 292 293 293 292 293 292 293 295 295 296 295 294 295 301 318 323 323
282 281 282 283 283 285 286 286 288 289 289 290 292 293 291 291 292 293 293 292 291 291 291 291 291 292 290 291 295 302 315 322
280 281 281 282 283 284 286 286 286 288 287 288 290 292 294 292 291 291 292 292 291 291 289 289 288 289 288 289 291 303 307 318
279 279 280 281 282 284 284 287 287 287 286 286 287 290 290 292 293 292 291 289 290 289 289 289 287 287 287 288 290 294 292 292
280 279 279 281 283 284 285 286 286 285 284 284 285 287 287 289 289 289 290 290 289 288 288 287 288 286 286 286 288 291 289 289